Time,TemperatureF,DewpointF,PressureIn,WindDirection,WindDirectionDegrees,WindSpeedMPH,WindSpeedGustMPH,Humidity,HourlyPrecipIn,Conditions,Clouds,dailyrainin,SoftwareType,DateUTC
2013-12-22 00:02:00,31.1,28.1,29.62,NNE,23,5.6,17.4,88,0.00,,,0.00,WUHU216HW,2013-12-22 06:02:00,
2013-12-22 00:04:00,31.1,28.1,29.61,NNE,23,11.4,17.4,88,0.00,,,0.00,WUHU216HW,2013-12-22 06:04:00,
2013-12-22 00:05:00,31.1,28.1,29.61,NNE,23,11.6,17.4,88,0.00,,,0.00,WUHU216HW,2013-12-22 06:05:00,
2013-12-22 00:07:00,31.1,28.1,29.60,NNE,23,11.2,17.4,88,0.00,,,0.00,WUHU216HW,2013-12-22 06:07:00,
2013-12-22 00:08:00,31.0,27.9,29.60,NNE,23,8.9,17.4,88,0.00,,,0.00,WUHU216HW,2013-12-22 06:08:00,
2013-12-22 00:10:00,31.1,28.1,29.60,NNE,23,8.9,17.4,88,0.00,,,0.00,WUHU216HW,2013-12-22 06:10:00,
2013-12-22 00:12:00,31.0,27.9,29.61,NNE,23,6.9,17.4,88,0.00,,,0.00,WUHU216HW,2013-12-22 06:12:00,
2013-12-22 00:13:00,31.0,27.9,29.61,NNE,23,7.8,17.4,88,0.00,,,0.00,WUHU216HW,2013-12-22 06:13:00,
2013-12-22 00:14:00,31.0,27.9,29.61,NNE,23,6.9,17.4,88,0.00,,,0.00,WUHU216HW,2013-12-22 06:14:00,
2013-12-22 00:15:00,31.0,27.9,29.61,NNE,23,7.2,17.4,88,0.00,,,0.00,WUHU216HW,2013-12-22 06:15:00,
2013-12-22 00:17:00,31.0,28.2,29.62,NNE,23,6.0,17.4,89,0.00,,,0.00,WUHU216HW,2013-12-22 06:17:00,
2013-12-22 00:18:00,31.0,27.9,29.61,NNE,23,5.4,17.4,88,0.00,,,0.00,WUHU216HW,2013-12-22 06:18:00,
2013-12-22 00:19:00,31.0,27.9,29.61,NNE,23,5.6,17.4,88,0.00,,,0.00,WUHU216HW,2013-12-22 06:19:00,
2013-12-22 00:20:00,31.0,27.9,29.61,NNE,23,8.9,17.4,88,0.00,,,0.00,WUHU216HW,2013-12-22 06:20:00,
2013-12-22 00:22:00,31.0,28.2,29.62,NNE,23,6.5,17.4,89,0.00,,,0.00,WUHU216HW,2013-12-22 06:22:00,
2013-12-22 00:23:00,31.0,28.2,29.62,NNE,23,6.7,17.4,89,0.00,,,0.00,WUHU216HW,2013-12-22 06:23:00,
2013-12-22 00:24:00,31.0,28.2,29.62,NNE,23,8.5,17.4,89,0.00,,,0.00,WUHU216HW,2013-12-22 06:24:00,
2013-12-22 00:25:00,31.0,28.2,29.61,NNE,23,9.8,17.4,89,0.00,,,0.00,WUHU216HW,2013-12-22 06:25:00,
2013-12-22 00:27:00,31.0,28.2,29.61,NNE,23,5.4,17.4,89,0.00,,,0.00,WUHU216HW,2013-12-22 06:27:00,
2013-12-22 00:28:00,31.0,28.2,29.62,NNE,23,4.9,17.4,89,0.00,,,0.00,WUHU216HW,2013-12-22 06:28:00,
2013-12-22 00:29:00,30.8,28.0,29.62,NNE,23,5.6,17.4,89,0.00,,,0.00,WUHU216HW,2013-12-22 06:29:00,
2013-12-22 00:30:00,30.8,28.0,29.62,NNE,23,5.8,15.7,89,0.00,,,0.00,WUHU216HW,2013-12-22 06:30:00,
2013-12-22 00:31:00,30.8,28.0,29.62,NNE,23,8.3,15.7,89,0.00,,,0.00,WUHU216HW,2013-12-22 06:31:00,
2013-12-22 00:33:00,30.8,28.0,29.62,NNE,23,6.9,15.7,89,0.00,,,0.00,WUHU216HW,2013-12-22 06:33:00,
2013-12-22 00:35:00,30.6,27.8,29.62,NNE,23,4.5,15.7,89,0.00,,,0.00,WUHU216HW,2013-12-22 06:35:00,
2013-12-22 00:36:00,30.8,28.0,29.61,NNE,23,4.7,15.7,89,0.00,,,0.00,WUHU216HW,2013-12-22 06:36:00,
2013-12-22 00:38:00,30.8,28.0,29.61,NNE,23,6.0,15.7,89,0.00,,,0.00,WUHU216HW,2013-12-22 06:38:00,
2013-12-22 00:39:00,30.6,27.8,29.61,NNE,23,6.9,15.7,89,0.00,,,0.00,WUHU216HW,2013-12-22 06:39:00,
2013-12-22 00:40:00,30.6,27.8,29.60,NNE,23,5.8,15.7,89,0.00,,,0.00,WUHU216HW,2013-12-22 06:40:00,
2013-12-22 00:41:00,30.6,27.8,29.60,NNE,23,6.3,15.7,89,0.00,,,0.00,WUHU216HW,2013-12-22 06:41:00,
2013-12-22 00:42:00,30.6,27.8,29.60,NNE,23,9.8,15.7,89,0.00,,,0.00,WUHU216HW,2013-12-22 06:42:00,
2013-12-22 00:44:00,30.6,27.8,29.61,NNE,23,6.9,15.0,89,0.00,,,0.00,WUHU216HW,2013-12-22 06:44:00,
2013-12-22 00:45:00,30.6,27.8,29.62,NNE,23,6.3,15.0,89,0.00,,,0.00,WUHU216HW,2013-12-22 06:45:00,
2013-12-22 00:46:00,30.6,27.8,29.62,NNE,23,6.9,15.0,89,0.00,,,0.00,WUHU216HW,2013-12-22 06:46:00,
2013-12-22 00:47:00,30.6,27.8,29.62,NNE,23,6.3,15.0,89,0.00,,,0.00,WUHU216HW,2013-12-22 06:47:00,
2013-12-22 00:49:00,30.6,27.8,29.63,NNE,23,6.3,15.0,89,0.00,,,0.00,WUHU216HW,2013-12-22 06:49:00,
2013-12-22 00:51:00,30.6,28.1,29.63,NNE,23,7.8,15.0,90,0.00,,,0.00,WUHU216HW,2013-12-22 06:51:00,
2013-12-22 00:53:00,30.6,28.1,29.63,NNE,23,6.9,15.0,90,0.00,,,0.00,WUHU216HW,2013-12-22 06:53:00,
2013-12-22 00:57:00,30.6,27.8,29.63,NNE,23,9.8,17.4,89,0.00,,,0.00,WUHU216HW,2013-12-22 06:57:00,
2013-12-22 00:59:00,30.6,27.8,29.62,NNE,23,6.0,17.4,89,0.00,,,0.00,WUHU216HW,2013-12-22 06:59:00,
2013-12-22 01:00:00,30.4,27.6,29.62,NNE,23,6.5,17.4,89,0.00,,,0.00,WUHU216HW,2013-12-22 07:00:00,
2013-12-22 01:02:00,30.4,27.6,29.63,NNE,23,8.9,17.4,89,0.00,,,0.00,WUHU216HW,2013-12-22 07:02:00,
2013-12-22 01:04:00,30.4,27.6,29.63,NNE,23,8.5,17.4,89,0.00,,,0.00,WUHU216HW,2013-12-22 07:04:00,
2013-12-22 01:05:00,30.2,27.5,29.63,NNE,23,8.5,17.4,89,0.00,,,0.00,WUHU216HW,2013-12-22 07:05:00,
2013-12-22 01:07:00,30.2,27.5,29.63,NNE,23,6.9,17.4,89,0.00,,,0.00,WUHU216HW,2013-12-22 07:07:00,
2013-12-22 01:09:00,30.2,27.5,29.62,NNE,23,5.8,17.4,89,0.00,,,0.00,WUHU216HW,2013-12-22 07:09:00,
2013-12-22 01:10:00,30.2,27.7,29.62,NNE,23,4.7,17.4,90,0.00,,,0.00,WUHU216HW,2013-12-22 07:10:00,
2013-12-22 01:11:00,30.2,27.7,29.62,NNE,23,6.9,17.4,90,0.00,,,0.00,WUHU216HW,2013-12-22 07:11:00,
2013-12-22 01:12:00,30.2,27.7,29.62,NNE,23,6.5,17.4,90,0.00,,,0.00,WUHU216HW,2013-12-22 07:12:00,
2013-12-22 01:14:00,30.2,27.7,29.62,NNE,23,6.5,17.4,90,0.00,,,0.00,WUHU216HW,2013-12-22 07:14:00,
2013-12-22 01:15:00,30.2,27.7,29.62,NNE,23,5.4,17.4,90,0.00,,,0.00,WUHU216HW,2013-12-22 07:15:00,
2013-12-22 01:17:00,30.2,27.7,29.62,NNE,23,6.3,17.4,90,0.00,,,0.00,WUHU216HW,2013-12-22 07:17:00,
2013-12-22 01:19:00,30.1,27.5,29.62,NNE,23,6.3,17.4,90,0.00,,,0.00,WUHU216HW,2013-12-22 07:19:00,
2013-12-22 01:20:00,30.1,27.5,29.62,NNE,23,4.9,17.4,90,0.00,,,0.00,WUHU216HW,2013-12-22 07:20:00,
2013-12-22 01:21:00,30.1,27.5,29.62,NNE,23,5.8,17.4,90,0.00,,,0.00,WUHU216HW,2013-12-22 07:21:00,
2013-12-22 01:22:00,30.1,27.5,29.62,NNE,23,9.8,17.4,90,0.00,,,0.00,WUHU216HW,2013-12-22 07:22:00,
2013-12-22 01:23:00,30.1,27.5,29.62,NNE,23,7.4,17.4,90,0.00,,,0.00,WUHU216HW,2013-12-22 07:23:00,
2013-12-22 01:24:00,30.1,27.8,29.62,NNE,23,9.4,17.4,91,0.00,,,0.00,WUHU216HW,2013-12-22 07:24:00,
2013-12-22 01:25:00,29.9,27.6,29.62,NNE,23,10.1,17.4,91,0.00,,,0.00,WUHU216HW,2013-12-22 07:25:00,
2013-12-22 01:26:00,29.9,27.6,29.62,NNE,23,10.1,17.4,91,0.00,,,0.00,WUHU216HW,2013-12-22 07:26:00,
2013-12-22 01:27:00,29.9,27.6,29.61,NNE,23,6.5,17.4,91,0.00,,,0.00,WUHU216HW,2013-12-22 07:27:00,
2013-12-22 01:28:00,29.9,27.6,29.61,NNE,23,7.8,17.4,91,0.00,,,0.00,WUHU216HW,2013-12-22 07:28:00,
2013-12-22 01:30:00,29.9,27.6,29.62,NNE,23,9.4,15.7,91,0.00,,,0.00,WUHU216HW,2013-12-22 07:30:00,
2013-12-22 01:31:00,29.9,27.6,29.61,NNE,23,9.2,15.7,91,0.00,,,0.00,WUHU216HW,2013-12-22 07:31:00,
2013-12-22 01:32:00,29.9,27.6,29.61,NNE,23,10.7,15.7,91,0.00,,,0.00,WUHU216HW,2013-12-22 07:32:00,
2013-12-22 01:33:00,29.9,27.6,29.62,NNE,23,9.2,15.7,91,0.00,,,0.00,WUHU216HW,2013-12-22 07:33:00,
2013-12-22 01:35:00,29.9,27.6,29.62,NNE,23,9.2,15.7,91,0.00,,,0.00,WUHU216HW,2013-12-22 07:35:00,
2013-12-22 01:36:00,29.9,27.6,29.62,NNE,23,8.3,15.7,91,0.00,,,0.00,WUHU216HW,2013-12-22 07:36:00,
2013-12-22 01:37:00,29.9,27.6,29.62,NNE,23,8.5,15.7,91,0.00,,,0.00,WUHU216HW,2013-12-22 07:37:00,
2013-12-22 01:38:00,29.7,27.5,29.62,NNE,23,6.9,15.7,91,0.00,,,0.00,WUHU216HW,2013-12-22 07:38:00,
2013-12-22 01:40:00,29.7,27.5,29.62,NNE,23,6.7,15.7,91,0.00,,,0.00,WUHU216HW,2013-12-22 07:40:00,
2013-12-22 01:41:00,29.7,27.5,29.62,NNE,23,6.0,15.7,91,0.00,,,0.00,WUHU216HW,2013-12-22 07:41:00,
2013-12-22 01:42:00,29.7,27.5,29.62,NNE,23,8.7,15.0,91,0.00,,,0.00,WUHU216HW,2013-12-22 07:42:00,
2013-12-22 01:43:00,29.7,27.5,29.62,NNE,23,8.5,15.0,91,0.00,,,0.00,WUHU216HW,2013-12-22 07:43:00,
2013-12-22 01:46:00,29.5,27.3,29.62,NNE,23,9.8,15.0,91,0.00,,,0.00,WUHU216HW,2013-12-22 07:46:00,
2013-12-22 01:47:00,29.5,27.3,29.62,NNE,23,7.4,15.0,91,0.00,,,0.00,WUHU216HW,2013-12-22 07:47:00,
2013-12-22 01:48:00,29.5,27.3,29.62,NNE,23,11.0,15.0,91,0.00,,,0.00,WUHU216HW,2013-12-22 07:48:00,
2013-12-22 01:51:00,29.5,27.3,29.62,NNE,23,6.3,15.0,91,0.00,,,0.00,WUHU216HW,2013-12-22 07:51:00,
2013-12-22 01:52:00,29.5,27.3,29.62,NNE,23,8.5,15.0,91,0.00,,,0.00,WUHU216HW,2013-12-22 07:52:00,
2013-12-22 01:53:00,29.5,27.3,29.62,NNE,23,8.5,15.0,91,0.00,,,0.00,WUHU216HW,2013-12-22 07:53:00,
2013-12-22 01:54:00,29.5,27.3,29.62,NNE,23,8.1,15.0,91,0.00,,,0.00,WUHU216HW,2013-12-22 07:54:00,
2013-12-22 01:59:00,29.3,27.1,29.63,NNE,23,6.9,17.4,91,0.00,,,0.00,WUHU216HW,2013-12-22 07:59:00,
2013-12-22 02:00:00,29.3,27.1,29.63,NNE,23,5.6,17.4,91,0.00,,,0.00,WUHU216HW,2013-12-22 08:00:00,
2013-12-22 02:01:00,29.3,27.1,29.63,NNE,23,8.5,17.4,91,0.00,,,0.00,WUHU216HW,2013-12-22 08:01:00,
2013-12-22 02:04:00,29.3,27.4,29.62,NNE,23,10.5,17.4,92,0.00,,,0.00,WUHU216HW,2013-12-22 08:04:00,
2013-12-22 02:05:00,29.3,27.4,29.62,NNE,23,6.9,17.4,92,0.00,,,0.00,WUHU216HW,2013-12-22 08:05:00,
2013-12-22 02:06:00,29.2,27.2,29.62,NNE,23,10.3,17.4,92,0.00,,,0.00,WUHU216HW,2013-12-22 08:06:00,
2013-12-22 02:09:00,29.2,27.2,29.62,NNE,23,6.3,17.4,92,0.00,,,0.00,WUHU216HW,2013-12-22 08:09:00,
2013-12-22 02:10:00,29.2,27.2,29.62,NNE,23,7.6,17.4,92,0.00,,,0.00,WUHU216HW,2013-12-22 08:10:00,
2013-12-22 02:12:00,29.2,27.2,29.62,NNE,23,11.2,17.4,92,0.00,,,0.00,WUHU216HW,2013-12-22 08:12:00,
2013-12-22 02:14:00,29.2,27.2,29.62,NNE,23,5.4,17.4,92,0.00,,,0.00,WUHU216HW,2013-12-22 08:14:00,
2013-12-22 02:15:00,29.2,27.2,29.62,NNE,23,5.4,17.4,92,0.00,,,0.00,WUHU216HW,2013-12-22 08:15:00,
2013-12-22 02:17:00,29.2,27.2,29.60,NNE,23,6.9,17.4,92,0.00,,,0.00,WUHU216HW,2013-12-22 08:17:00,
2013-12-22 02:20:00,29.2,27.2,29.60,NNE,23,10.1,17.4,92,0.00,,,0.00,WUHU216HW,2013-12-22 08:20:00,
2013-12-22 02:22:00,29.2,27.2,29.60,NNE,23,7.6,17.4,92,0.00,,,0.00,WUHU216HW,2013-12-22 08:22:00,
2013-12-22 02:25:00,29.2,27.2,29.60,NNE,23,7.8,17.4,92,0.00,,,0.00,WUHU216HW,2013-12-22 08:25:00,
2013-12-22 02:26:00,29.2,27.2,29.60,NNE,23,6.9,17.4,92,0.00,,,0.00,WUHU216HW,2013-12-22 08:26:00,
2013-12-22 02:27:00,29.0,27.0,29.59,NNE,23,10.5,17.4,92,0.00,,,0.00,WUHU216HW,2013-12-22 08:27:00,
2013-12-22 02:30:00,29.0,27.0,29.59,NNE,23,10.5,17.0,92,0.00,,,0.00,WUHU216HW,2013-12-22 08:30:00,
2013-12-22 02:31:00,29.0,27.0,29.59,NNE,23,8.1,17.0,92,0.00,,,0.00,WUHU216HW,2013-12-22 08:31:00,
2013-12-22 02:32:00,29.0,27.0,29.59,NNE,23,6.9,17.0,92,0.00,,,0.00,WUHU216HW,2013-12-22 08:32:00,
2013-12-22 02:35:00,29.0,27.0,29.59,NNE,23,7.6,15.7,92,0.00,,,0.00,WUHU216HW,2013-12-22 08:35:00,
2013-12-22 02:36:00,29.0,27.0,29.59,NNE,23,9.2,15.7,92,0.00,,,0.00,WUHU216HW,2013-12-22 08:36:00,
2013-12-22 02:37:00,29.0,27.0,29.58,NNE,23,9.8,15.7,92,0.00,,,0.00,WUHU216HW,2013-12-22 08:37:00,
2013-12-22 02:40:00,29.0,27.0,29.58,NNE,23,12.3,15.7,92,0.00,,,0.00,WUHU216HW,2013-12-22 08:40:00,
2013-12-22 02:41:00,29.0,27.0,29.58,NNE,23,6.9,15.7,92,0.00,,,0.00,WUHU216HW,2013-12-22 08:41:00,
2013-12-22 02:42:00,28.8,26.8,29.58,NNE,23,6.3,15.0,92,0.00,,,0.00,WUHU216HW,2013-12-22 08:42:00,
2013-12-22 02:45:00,28.8,26.8,29.58,NNE,23,9.2,15.0,92,0.00,,,0.00,WUHU216HW,2013-12-22 08:45:00,
2013-12-22 02:46:00,29.0,27.0,29.58,NNE,23,8.9,15.0,92,0.00,,,0.00,WUHU216HW,2013-12-22 08:46:00,
2013-12-22 02:47:00,28.8,26.8,29.58,NNE,23,11.4,15.0,92,0.00,,,0.00,WUHU216HW,2013-12-22 08:47:00,
2013-12-22 02:50:00,28.8,26.8,29.58,NNE,23,12.5,15.0,92,0.00,,,0.00,WUHU216HW,2013-12-22 08:50:00,
2013-12-22 02:51:00,28.8,26.8,29.58,NNE,23,11.4,15.0,92,0.00,,,0.00,WUHU216HW,2013-12-22 08:51:00,
2013-12-22 02:52:00,28.8,26.8,29.58,NNE,23,12.8,15.0,92,0.00,,,0.00,WUHU216HW,2013-12-22 08:52:00,
2013-12-22 02:53:00,28.8,26.8,29.58,NNE,23,9.8,15.0,92,0.00,,,0.00,WUHU216HW,2013-12-22 08:53:00,
2013-12-22 02:58:00,28.8,26.8,29.58,NNE,23,9.8,17.4,92,0.00,,,0.00,WUHU216HW,2013-12-22 08:58:00,
2013-12-22 02:59:00,28.8,26.8,29.58,NNE,23,7.8,17.4,92,0.00,,,0.00,WUHU216HW,2013-12-22 08:59:00,
2013-12-22 03:02:00,28.8,26.8,29.57,NNE,23,10.3,17.4,92,0.00,,,0.00,WUHU216HW,2013-12-22 09:02:00,
2013-12-22 03:03:00,28.8,26.8,29.57,NNE,23,12.8,17.4,92,0.00,,,0.00,WUHU216HW,2013-12-22 09:03:00,
2013-12-22 03:04:00,28.8,26.8,29.57,NNE,23,9.2,17.4,92,0.00,,,0.00,WUHU216HW,2013-12-22 09:04:00,
2013-12-22 03:07:00,28.8,27.0,29.57,NNE,23,8.5,17.4,93,0.00,,,0.00,WUHU216HW,2013-12-22 09:07:00,
2013-12-22 03:08:00,28.6,26.8,29.57,NNE,23,6.9,17.4,93,0.00,,,0.00,WUHU216HW,2013-12-22 09:08:00,
2013-12-22 03:09:00,28.8,27.0,29.58,NNE,23,10.5,17.4,93,0.00,,,0.00,WUHU216HW,2013-12-22 09:09:00,
2013-12-22 03:13:00,28.8,27.0,29.58,NNE,23,7.4,17.4,93,0.00,,,0.00,WUHU216HW,2013-12-22 09:13:00,
2013-12-22 03:14:00,28.6,26.8,29.57,NNE,23,11.0,17.4,93,0.00,,,0.00,WUHU216HW,2013-12-22 09:14:00,
2013-12-22 03:18:00,28.6,26.8,29.69,NNE,23,10.7,17.4,93,0.00,,,0.00,WUHU216HW,2013-12-22 09:18:00,
2013-12-22 03:19:00,28.6,26.8,29.56,NNE,23,7.4,17.4,93,0.00,,,0.00,WUHU216HW,2013-12-22 09:19:00,
2013-12-22 03:20:00,28.6,26.8,29.56,NNE,23,9.6,17.4,93,0.00,,,0.00,WUHU216HW,2013-12-22 09:20:00,
2013-12-22 03:23:00,28.6,26.8,29.57,NNE,23,6.9,17.4,93,0.00,,,0.00,WUHU216HW,2013-12-22 09:23:00,
2013-12-22 03:24:00,28.6,26.8,29.57,NNE,23,9.4,17.4,93,0.00,,,0.00,WUHU216HW,2013-12-22 09:24:00,
2013-12-22 03:25:00,28.6,26.8,29.57,NNE,23,9.6,17.4,93,0.00,,,0.00,WUHU216HW,2013-12-22 09:25:00,
2013-12-22 03:28:00,28.6,26.8,29.57,NNE,23,15.0,17.4,93,0.00,,,0.00,WUHU216HW,2013-12-22 09:28:00,
2013-12-22 03:29:00,28.6,26.8,29.57,NNE,23,9.8,17.4,93,0.00,,,0.00,WUHU216HW,2013-12-22 09:29:00,
2013-12-22 03:30:00,28.4,26.6,29.57,NNE,23,6.9,17.0,93,0.00,,,0.00,WUHU216HW,2013-12-22 09:30:00,
2013-12-22 03:33:00,28.4,26.6,29.57,NNE,23,6.9,17.0,93,0.00,,,0.00,WUHU216HW,2013-12-22 09:33:00,
2013-12-22 03:34:00,28.4,26.6,29.57,NNE,23,7.8,15.7,93,0.00,,,0.00,WUHU216HW,2013-12-22 09:34:00,
2013-12-22 03:35:00,28.4,26.6,29.57,NNE,23,6.3,15.7,93,0.00,,,0.00,WUHU216HW,2013-12-22 09:35:00,
2013-12-22 03:38:00,28.4,26.6,29.57,NNE,23,7.6,15.7,93,0.00,,,0.00,WUHU216HW,2013-12-22 09:38:00,
2013-12-22 03:39:00,28.4,26.6,29.57,NNE,23,6.3,15.7,93,0.00,,,0.00,WUHU216HW,2013-12-22 09:39:00,
2013-12-22 03:40:00,28.4,26.6,29.69,NNE,23,7.8,15.7,93,0.00,,,0.00,WUHU216HW,2013-12-22 09:40:00,
2013-12-22 03:41:00,28.4,26.6,29.56,NNE,23,8.5,15.7,93,0.00,,,0.00,WUHU216HW,2013-12-22 09:41:00,
2013-12-22 03:43:00,28.4,26.6,29.56,NNE,23,6.5,15.0,93,0.00,,,0.00,WUHU216HW,2013-12-22 09:43:00,
2013-12-22 03:44:00,28.4,26.6,29.56,NNE,23,9.8,15.0,93,0.00,,,0.00,WUHU216HW,2013-12-22 09:44:00,
2013-12-22 03:45:00,28.4,26.6,29.57,NNE,23,9.8,15.0,93,0.00,,,0.00,WUHU216HW,2013-12-22 09:45:00,
2013-12-22 03:46:00,28.4,26.6,29.57,NNE,23,6.5,15.0,93,0.00,,,0.00,WUHU216HW,2013-12-22 09:46:00,
2013-12-22 03:48:00,28.4,26.6,29.69,NNE,23,9.2,15.0,93,0.00,,,0.00,WUHU216HW,2013-12-22 09:48:00,
2013-12-22 03:49:00,28.4,26.6,29.56,NNE,23,5.4,15.0,93,0.00,,,0.00,WUHU216HW,2013-12-22 09:49:00,
2013-12-22 03:50:00,28.4,26.6,29.57,NNE,23,8.9,15.0,93,0.00,,,0.00,WUHU216HW,2013-12-22 09:50:00,
2013-12-22 03:51:00,28.4,26.6,29.57,NNE,23,5.8,15.0,93,0.00,,,0.00,WUHU216HW,2013-12-22 09:51:00,
2013-12-22 03:58:00,28.4,26.6,29.56,NNE,23,10.3,17.4,93,0.00,,,0.00,WUHU216HW,2013-12-22 09:58:00,
2013-12-22 03:59:00,28.4,26.6,29.56,NNE,23,6.7,17.4,93,0.00,,,0.00,WUHU216HW,2013-12-22 09:59:00,
2013-12-22 04:03:00,28.4,26.6,29.56,NNE,23,10.1,17.4,93,0.00,,,0.00,WUHU216HW,2013-12-22 10:03:00,
2013-12-22 04:04:00,28.4,26.6,29.56,NNE,23,7.6,17.4,93,0.00,,,0.00,WUHU216HW,2013-12-22 10:04:00,
2013-12-22 04:08:00,28.4,26.6,29.55,NNE,23,5.8,17.4,93,0.00,,,0.00,WUHU216HW,2013-12-22 10:08:00,
2013-12-22 04:09:00,28.4,26.6,29.55,NNE,23,5.8,17.4,93,0.00,,,0.00,WUHU216HW,2013-12-22 10:09:00,
2013-12-22 04:10:00,28.4,26.6,29.55,NNE,23,6.7,17.4,93,0.00,,,0.00,WUHU216HW,2013-12-22 10:10:00,
2013-12-22 04:13:00,28.4,26.6,29.55,NNE,23,5.6,17.4,93,0.00,,,0.00,WUHU216HW,2013-12-22 10:13:00,
2013-12-22 04:14:00,28.4,26.6,29.55,NNE,23,5.6,17.4,93,0.00,,,0.00,WUHU216HW,2013-12-22 10:14:00,
2013-12-22 04:15:00,28.4,26.6,29.55,NNE,23,7.2,17.4,93,0.00,,,0.00,WUHU216HW,2013-12-22 10:15:00,
2013-12-22 04:19:00,28.4,26.6,29.55,NNE,23,5.8,17.4,93,0.00,,,0.00,WUHU216HW,2013-12-22 10:19:00,
2013-12-22 04:20:00,28.4,26.6,29.55,NNE,23,6.0,17.4,93,0.00,,,0.00,WUHU216HW,2013-12-22 10:20:00,
2013-12-22 04:24:00,28.4,26.6,29.55,NNE,23,7.8,17.4,93,0.00,,,0.00,WUHU216HW,2013-12-22 10:24:00,
2013-12-22 04:25:00,28.4,26.6,29.55,NNE,23,8.7,17.4,93,0.00,,,0.00,WUHU216HW,2013-12-22 10:25:00,
2013-12-22 04:26:00,28.4,26.6,29.55,NNE,23,9.2,17.4,93,0.00,,,0.00,WUHU216HW,2013-12-22 10:26:00,
2013-12-22 04:29:00,28.4,26.6,29.55,NNE,23,8.9,17.4,93,0.00,,,0.00,WUHU216HW,2013-12-22 10:29:00,
2013-12-22 04:30:00,28.4,26.6,29.55,NNE,23,8.3,17.0,93,0.00,,,0.00,WUHU216HW,2013-12-22 10:30:00,
2013-12-22 04:31:00,28.4,26.6,29.55,NNE,23,6.7,17.0,93,0.00,,,0.00,WUHU216HW,2013-12-22 10:31:00,
2013-12-22 04:34:00,28.4,26.6,29.55,NNE,23,9.4,15.7,93,0.00,,,0.00,WUHU216HW,2013-12-22 10:34:00,
2013-12-22 04:35:00,28.4,26.6,29.55,NNE,23,8.3,15.7,93,0.00,,,0.00,WUHU216HW,2013-12-22 10:35:00,
2013-12-22 04:36:00,28.4,26.6,29.55,NNE,23,7.4,15.7,93,0.00,,,0.00,WUHU216HW,2013-12-22 10:36:00,
2013-12-22 04:39:00,28.3,26.5,29.55,NNE,23,7.6,15.7,93,0.00,,,0.00,WUHU216HW,2013-12-22 10:39:00,
2013-12-22 04:40:00,28.4,26.6,29.55,NNE,23,10.5,15.7,93,0.00,,,0.00,WUHU216HW,2013-12-22 10:40:00,
2013-12-22 04:41:00,28.4,26.6,29.55,NNE,23,9.8,15.7,93,0.00,,,0.00,WUHU216HW,2013-12-22 10:41:00,
2013-12-22 04:44:00,28.4,26.6,29.55,NNE,23,9.6,15.0,93,0.00,,,0.00,WUHU216HW,2013-12-22 10:44:00,
2013-12-22 04:45:00,28.4,26.6,29.55,NNE,23,10.1,15.0,93,0.00,,,0.00,WUHU216HW,2013-12-22 10:45:00,
2013-12-22 04:46:00,28.4,26.6,29.55,NNE,23,6.9,15.0,93,0.00,,,0.00,WUHU216HW,2013-12-22 10:46:00,
2013-12-22 04:47:00,28.4,26.6,29.55,NNE,23,6.9,15.0,93,0.00,,,0.00,WUHU216HW,2013-12-22 10:47:00,
2013-12-22 04:49:00,28.4,26.6,29.55,NNE,23,6.0,15.0,93,0.00,,,0.00,WUHU216HW,2013-12-22 10:49:00,
2013-12-22 04:50:00,28.4,26.6,29.55,NNE,23,7.2,15.0,93,0.00,,,0.00,WUHU216HW,2013-12-22 10:50:00,
2013-12-22 04:51:00,28.4,26.6,29.55,NNE,23,8.7,15.0,93,0.00,,,0.00,WUHU216HW,2013-12-22 10:51:00,
2013-12-22 04:52:00,28.4,26.6,29.55,NNE,23,8.5,15.0,93,0.00,,,0.00,WUHU216HW,2013-12-22 10:52:00,
2013-12-22 04:57:00,28.4,26.6,29.55,NNE,23,9.8,17.4,93,0.00,,,0.00,WUHU216HW,2013-12-22 10:57:00,
2013-12-22 04:58:00,28.4,26.6,29.55,NNE,23,7.6,17.4,93,0.00,,,0.00,WUHU216HW,2013-12-22 10:58:00,
2013-12-22 05:00:00,28.4,26.6,29.56,NNE,23,6.3,17.4,93,0.00,,,0.00,WUHU216HW,2013-12-22 11:00:00,
2013-12-22 05:01:00,28.4,26.6,29.56,NNE,23,6.9,17.4,93,0.00,,,0.00,WUHU216HW,2013-12-22 11:01:00,
2013-12-22 05:03:00,28.4,26.6,29.56,NNE,23,11.6,17.4,93,0.00,,,0.00,WUHU216HW,2013-12-22 11:03:00,
2013-12-22 05:06:00,28.4,26.6,29.56,NNE,23,10.7,17.4,93,0.00,,,0.00,WUHU216HW,2013-12-22 11:06:00,
2013-12-22 05:07:00,28.4,26.6,29.56,NNE,23,7.8,17.4,93,0.00,,,0.00,WUHU216HW,2013-12-22 11:07:00,
2013-12-22 05:08:00,28.4,26.6,29.56,NNE,23,8.1,17.4,93,0.00,,,0.00,WUHU216HW,2013-12-22 11:08:00,
2013-12-22 05:11:00,28.4,26.6,29.56,NNE,23,6.7,17.4,93,0.00,,,0.00,WUHU216HW,2013-12-22 11:11:00,
2013-12-22 05:12:00,28.4,26.6,29.56,NNE,23,8.1,17.4,93,0.00,,,0.00,WUHU216HW,2013-12-22 11:12:00,
2013-12-22 05:13:00,28.4,26.6,29.56,NNE,23,6.3,17.4,93,0.00,,,0.00,WUHU216HW,2013-12-22 11:13:00,
2013-12-22 05:14:00,28.4,26.6,29.56,NNE,23,7.6,17.4,93,0.00,,,0.00,WUHU216HW,2013-12-22 11:14:00,
2013-12-22 05:16:00,28.4,26.6,29.56,NNE,23,6.3,17.4,93,0.00,,,0.00,WUHU216HW,2013-12-22 11:16:00,
2013-12-22 05:18:00,28.4,26.6,29.56,NNE,23,7.6,17.4,93,0.00,,,0.00,WUHU216HW,2013-12-22 11:18:00,
2013-12-22 05:19:00,28.4,26.6,29.56,NNE,23,5.4,17.4,93,0.00,,,0.00,WUHU216HW,2013-12-22 11:19:00,
2013-12-22 05:21:00,28.4,26.6,29.56,NNE,23,11.2,17.4,93,0.00,,,0.00,WUHU216HW,2013-12-22 11:21:00,
2013-12-22 05:22:00,28.4,26.6,29.56,NNE,23,11.2,17.4,93,0.00,,,0.00,WUHU216HW,2013-12-22 11:22:00,
2013-12-22 05:23:00,28.4,26.6,29.55,NNE,23,7.6,17.4,93,0.00,,,0.00,WUHU216HW,2013-12-22 11:23:00,
2013-12-22 05:24:00,28.4,26.6,29.55,NNE,23,9.2,17.4,93,0.00,,,0.00,WUHU216HW,2013-12-22 11:24:00,
2013-12-22 05:27:00,28.4,26.6,29.55,NNE,23,9.8,17.4,93,0.00,,,0.00,WUHU216HW,2013-12-22 11:27:00,
2013-12-22 05:28:00,28.4,26.6,29.55,NNE,23,9.8,17.4,93,0.00,,,0.00,WUHU216HW,2013-12-22 11:28:00,
2013-12-22 05:29:00,28.4,26.6,29.55,NNE,23,8.7,17.4,93,0.00,,,0.00,WUHU216HW,2013-12-22 11:29:00,
2013-12-22 05:32:00,28.4,26.6,29.55,NNE,23,7.6,17.0,93,0.00,,,0.00,WUHU216HW,2013-12-22 11:32:00,
2013-12-22 05:34:00,28.4,26.6,29.56,NNE,23,6.7,15.7,93,0.00,,,0.00,WUHU216HW,2013-12-22 11:34:00,
2013-12-22 05:37:00,28.4,26.6,29.56,NNE,23,7.6,15.7,93,0.00,,,0.00,WUHU216HW,2013-12-22 11:37:00,
2013-12-22 05:39:00,28.4,26.6,29.55,NNE,23,8.7,15.7,93,0.00,,,0.00,WUHU216HW,2013-12-22 11:39:00,
2013-12-22 05:40:00,28.4,26.6,29.56,NNE,23,7.8,15.7,93,0.00,,,0.00,WUHU216HW,2013-12-22 11:40:00,
2013-12-22 05:42:00,28.4,26.6,29.56,NNE,23,9.6,15.7,93,0.00,,,0.00,WUHU216HW,2013-12-22 11:42:00,
2013-12-22 05:43:00,28.4,26.6,29.56,NNE,23,6.5,15.0,93,0.00,,,0.00,WUHU216HW,2013-12-22 11:43:00,
2013-12-22 05:44:00,28.4,26.6,29.56,NNE,23,8.1,15.0,93,0.00,,,0.00,WUHU216HW,2013-12-22 11:44:00,
2013-12-22 05:45:00,28.4,26.6,29.56,NNE,23,9.2,15.0,93,0.00,,,0.00,WUHU216HW,2013-12-22 11:45:00,
2013-12-22 05:47:00,28.4,26.6,29.56,NNE,23,8.5,15.0,93,0.00,,,0.00,WUHU216HW,2013-12-22 11:47:00,
2013-12-22 05:48:00,28.4,26.6,29.56,NNE,23,10.1,15.0,93,0.00,,,0.00,WUHU216HW,2013-12-22 11:48:00,
2013-12-22 05:49:00,28.4,26.6,29.56,NNE,23,11.9,15.0,93,0.00,,,0.00,WUHU216HW,2013-12-22 11:49:00,
2013-12-22 05:50:00,28.4,26.6,29.56,NNE,23,8.5,15.0,93,0.00,,,0.00,WUHU216HW,2013-12-22 11:50:00,
2013-12-22 05:51:00,28.4,26.6,29.56,NNE,23,11.2,15.0,93,0.00,,,0.00,WUHU216HW,2013-12-22 11:51:00,
2013-12-22 05:52:00,28.4,26.6,29.56,NNE,23,8.7,15.0,93,0.00,,,0.00,WUHU216HW,2013-12-22 11:52:00,
2013-12-22 05:53:00,28.4,26.6,29.56,NNE,23,8.7,15.0,93,0.00,,,0.00,WUHU216HW,2013-12-22 11:53:00,
2013-12-22 05:57:00,28.4,26.6,29.57,NNE,23,8.1,17.4,93,0.00,,,0.00,WUHU216HW,2013-12-22 11:57:00,
2013-12-22 05:58:00,28.4,26.6,29.56,NNE,23,8.3,17.4,93,0.00,,,0.00,WUHU216HW,2013-12-22 11:58:00,
2013-12-22 06:01:00,28.4,26.6,29.56,NNE,23,6.5,17.4,93,0.00,,,0.00,WUHU216HW,2013-12-22 12:01:00,
2013-12-22 06:02:00,28.4,26.6,29.56,NNE,23,5.6,17.4,93,0.00,,,0.00,WUHU216HW,2013-12-22 12:02:00,
2013-12-22 06:03:00,28.4,26.6,29.56,NNE,23,7.6,17.4,93,0.00,,,0.00,WUHU216HW,2013-12-22 12:03:00,
2013-12-22 06:04:00,28.4,26.6,29.56,NNE,23,6.3,17.4,93,0.00,,,0.00,WUHU216HW,2013-12-22 12:04:00,
2013-12-22 06:07:00,28.4,26.6,29.56,NNE,23,7.4,17.4,93,0.00,,,0.00,WUHU216HW,2013-12-22 12:07:00,
2013-12-22 06:08:00,28.3,26.5,29.56,NNE,23,10.5,17.4,93,0.00,,,0.00,WUHU216HW,2013-12-22 12:08:00,
2013-12-22 06:09:00,28.4,26.6,29.57,NNE,23,11.4,17.4,93,0.00,,,0.00,WUHU216HW,2013-12-22 12:09:00,
2013-12-22 06:12:00,28.4,26.6,29.56,NNE,23,6.7,17.4,93,0.00,,,0.00,WUHU216HW,2013-12-22 12:12:00,
2013-12-22 06:13:00,28.4,26.6,29.56,NNE,23,5.8,17.4,93,0.00,,,0.00,WUHU216HW,2013-12-22 12:13:00,
2013-12-22 06:14:00,28.4,26.6,29.56,NNE,23,7.8,17.4,93,0.00,,,0.00,WUHU216HW,2013-12-22 12:14:00,
2013-12-22 06:17:00,28.3,26.5,29.56,NNE,23,4.5,17.4,93,0.00,,,0.00,WUHU216HW,2013-12-22 12:17:00,
2013-12-22 06:18:00,28.4,26.6,29.56,NNE,23,4.7,17.4,93,0.00,,,0.00,WUHU216HW,2013-12-22 12:18:00,
2013-12-22 06:19:00,28.4,26.6,29.56,NNE,23,7.8,17.4,93,0.00,,,0.00,WUHU216HW,2013-12-22 12:19:00,
2013-12-22 06:23:00,28.3,26.5,29.56,NNE,23,7.6,17.4,93,0.00,,,0.00,WUHU216HW,2013-12-22 12:23:00,
2013-12-22 06:24:00,28.3,26.5,29.56,NNE,23,6.0,17.4,93,0.00,,,0.00,WUHU216HW,2013-12-22 12:24:00,
2013-12-22 06:28:00,28.3,26.5,29.57,NNE,23,4.7,17.4,93,0.00,,,0.00,WUHU216HW,2013-12-22 12:28:00,
2013-12-22 06:29:00,28.3,26.5,29.57,NNE,23,4.5,17.4,93,0.00,,,0.00,WUHU216HW,2013-12-22 12:29:00,
2013-12-22 06:33:00,28.3,26.5,29.57,NNE,23,4.7,17.0,93,0.00,,,0.00,WUHU216HW,2013-12-22 12:33:00,
2013-12-22 06:34:00,28.3,26.5,29.58,NNE,23,6.3,15.7,93,0.00,,,0.00,WUHU216HW,2013-12-22 12:34:00,
2013-12-22 06:35:00,28.3,26.5,29.58,NNE,23,5.4,15.7,93,0.00,,,0.00,WUHU216HW,2013-12-22 12:35:00,
2013-12-22 06:38:00,28.3,26.5,29.58,NNE,23,5.4,15.7,93,0.00,,,0.00,WUHU216HW,2013-12-22 12:38:00,
2013-12-22 06:39:00,28.3,26.5,29.58,NNE,22,4.5,15.7,93,0.00,,,0.00,WUHU216HW,2013-12-22 12:39:00,
2013-12-22 06:41:00,28.3,26.5,29.58,NNE,23,7.4,15.7,93,0.00,,,0.00,WUHU216HW,2013-12-22 12:41:00,
2013-12-22 06:43:00,28.3,26.5,29.58,NNE,23,5.1,15.0,93,0.00,,,0.00,WUHU216HW,2013-12-22 12:43:00,
2013-12-22 06:44:00,28.3,26.5,29.58,NNE,22,4.6,15.0,93,0.00,,,0.00,WUHU216HW,2013-12-22 12:44:00,
2013-12-22 06:45:00,28.3,26.5,29.58,NNE,22,4.6,15.0,93,0.00,,,0.00,WUHU216HW,2013-12-22 12:45:00,
2013-12-22 06:46:00,28.3,26.5,29.58,NNE,22,4.6,15.0,93,0.00,,,0.00,WUHU216HW,2013-12-22 12:46:00,
2013-12-22 06:48:00,28.3,26.5,29.58,NNE,23,5.4,15.0,93,0.00,,,0.00,WUHU216HW,2013-12-22 12:48:00,
2013-12-22 06:49:00,28.3,26.5,29.58,NNE,22,4.6,15.0,93,0.00,,,0.00,WUHU216HW,2013-12-22 12:49:00,
2013-12-22 06:50:00,28.3,26.5,29.58,NNE,22,4.6,15.0,93,0.00,,,0.00,WUHU216HW,2013-12-22 12:50:00,
2013-12-22 06:51:00,28.3,26.5,29.58,NNE,23,8.3,15.0,93,0.00,,,0.00,WUHU216HW,2013-12-22 12:51:00,
2013-12-22 06:58:00,28.3,26.5,29.58,NNE,23,6.0,17.4,93,0.00,,,0.00,WUHU216HW,2013-12-22 12:58:00,
2013-12-22 06:59:00,28.3,26.5,29.58,NNE,23,5.4,17.4,93,0.00,,,0.00,WUHU216HW,2013-12-22 12:59:00,
2013-12-22 07:00:00,28.1,26.3,29.58,NNE,22,4.6,17.4,93,0.00,,,0.00,WUHU216HW,2013-12-22 13:00:00,
2013-12-22 07:01:00,28.3,26.5,29.58,NNE,23,5.4,17.4,93,0.00,,,0.00,WUHU216HW,2013-12-22 13:01:00,
2013-12-22 07:02:00,28.3,26.5,29.58,NNE,23,4.7,17.4,93,0.00,,,0.00,WUHU216HW,2013-12-22 13:02:00,
2013-12-22 07:03:00,28.1,26.3,29.59,NNE,23,6.0,17.4,93,0.00,,,0.00,WUHU216HW,2013-12-22 13:03:00,
2013-12-22 07:04:00,28.3,26.5,29.59,NNE,23,5.6,17.4,93,0.00,,,0.00,WUHU216HW,2013-12-22 13:04:00,
2013-12-22 07:05:00,28.3,26.5,29.59,NNE,23,6.7,17.4,93,0.00,,,0.00,WUHU216HW,2013-12-22 13:05:00,
2013-12-22 07:06:00,28.1,26.3,29.59,NNE,23,5.4,17.4,93,0.00,,,0.00,WUHU216HW,2013-12-22 13:06:00,
2013-12-22 07:07:00,28.1,26.3,29.59,NNE,23,5.1,17.4,93,0.00,,,0.00,WUHU216HW,2013-12-22 13:07:00,
2013-12-22 07:08:00,28.3,26.5,29.59,NNE,22,4.6,17.4,93,0.00,,,0.00,WUHU216HW,2013-12-22 13:08:00,
2013-12-22 07:09:00,28.1,26.3,29.59,NNE,22,4.6,17.4,93,0.00,,,0.00,WUHU216HW,2013-12-22 13:09:00,
2013-12-22 07:11:00,28.1,26.3,29.59,NNE,22,4.6,17.4,93,0.00,,,0.00,WUHU216HW,2013-12-22 13:11:00,
2013-12-22 07:12:00,28.3,26.5,29.59,NNE,23,5.4,17.4,93,0.00,,,0.00,WUHU216HW,2013-12-22 13:12:00,
2013-12-22 07:13:00,28.1,26.3,29.60,NNE,22,4.6,17.4,93,0.00,,,0.00,WUHU216HW,2013-12-22 13:13:00,
2013-12-22 07:14:00,28.3,26.5,29.60,NNE,23,5.1,17.4,93,0.00,,,0.00,WUHU216HW,2013-12-22 13:14:00,
2013-12-22 07:16:00,28.3,26.5,29.60,NNE,23,5.4,17.4,93,0.00,,,0.00,WUHU216HW,2013-12-22 13:16:00,
2013-12-22 07:17:00,28.3,26.5,29.60,NNE,22,4.6,17.4,93,0.00,,,0.00,WUHU216HW,2013-12-22 13:17:00,
2013-12-22 07:18:00,28.1,26.3,29.60,NNE,22,4.5,17.4,93,0.00,,,0.00,WUHU216HW,2013-12-22 13:18:00,
2013-12-22 07:19:00,28.3,26.5,29.60,NNE,23,4.5,17.4,93,0.00,,,0.00,WUHU216HW,2013-12-22 13:19:00,
2013-12-22 07:21:00,28.3,26.5,29.60,NNE,22,4.6,17.4,93,0.00,,,0.00,WUHU216HW,2013-12-22 13:21:00,
2013-12-22 07:22:00,28.3,26.5,29.60,NNE,22,4.6,17.4,93,0.00,,,0.00,WUHU216HW,2013-12-22 13:22:00,
2013-12-22 07:23:00,28.3,26.5,29.61,NNE,23,5.1,17.4,93,0.00,,,0.00,WUHU216HW,2013-12-22 13:23:00,
2013-12-22 07:24:00,28.3,26.5,29.61,NNE,22,4.6,17.4,93,0.00,,,0.00,WUHU216HW,2013-12-22 13:24:00,
2013-12-22 07:26:00,28.3,26.5,29.61,NNE,22,4.6,17.4,93,0.00,,,0.00,WUHU216HW,2013-12-22 13:26:00,
2013-12-22 07:27:00,28.3,26.5,29.62,NNE,22,4.6,17.4,93,0.00,,,0.00,WUHU216HW,2013-12-22 13:27:00,
2013-12-22 07:28:00,28.3,26.5,29.62,NNE,22,4.6,17.4,93,0.00,,,0.00,WUHU216HW,2013-12-22 13:28:00,
2013-12-22 07:29:00,28.3,26.5,29.62,NNE,22,4.6,17.4,93,0.00,,,0.00,WUHU216HW,2013-12-22 13:29:00,
2013-12-22 07:32:00,28.3,26.5,29.62,NNE,22,4.5,17.0,93,0.00,,,0.00,WUHU216HW,2013-12-22 13:32:00,
2013-12-22 07:33:00,28.3,26.5,29.62,NNE,22,4.5,17.0,93,0.00,,,0.00,WUHU216HW,2013-12-22 13:33:00,
2013-12-22 07:34:00,28.3,26.5,29.62,NNE,23,4.7,15.7,93,0.00,,,0.00,WUHU216HW,2013-12-22 13:34:00,
2013-12-22 07:37:00,28.3,26.5,29.62,NNE,23,5.6,15.7,93,0.00,,,0.00,WUHU216HW,2013-12-22 13:37:00,
2013-12-22 07:38:00,28.3,26.5,29.62,NNE,23,6.0,15.7,93,0.00,,,0.00,WUHU216HW,2013-12-22 13:38:00,
2013-12-22 07:39:00,28.3,26.5,29.62,NNE,23,4.7,15.7,93,0.00,,,0.00,WUHU216HW,2013-12-22 13:39:00,
2013-12-22 07:40:00,28.3,26.5,29.62,NNE,23,4.9,15.7,93,0.00,,,0.00,WUHU216HW,2013-12-22 13:40:00,
2013-12-22 07:42:00,28.3,26.5,29.62,NNE,23,6.3,15.0,93,0.00,,,0.00,WUHU216HW,2013-12-22 13:42:00,
2013-12-22 07:43:00,28.3,26.5,29.62,NNE,23,6.3,15.0,93,0.00,,,0.00,WUHU216HW,2013-12-22 13:43:00,
2013-12-22 07:44:00,28.3,26.5,29.62,NNE,23,7.4,15.0,93,0.00,,,0.00,WUHU216HW,2013-12-22 13:44:00,
2013-12-22 07:45:00,28.3,26.5,29.62,NNE,23,8.1,15.0,93,0.00,,,0.00,WUHU216HW,2013-12-22 13:45:00,
2013-12-22 07:47:00,28.3,26.5,29.62,NNE,23,6.5,15.0,93,0.00,,,0.00,WUHU216HW,2013-12-22 13:47:00,
2013-12-22 07:49:00,28.3,26.5,29.62,NNE,22,4.6,15.0,93,0.00,,,0.00,WUHU216HW,2013-12-22 13:49:00,
2013-12-22 07:50:00,28.3,26.5,29.63,NNE,23,6.9,15.0,93,0.00,,,0.00,WUHU216HW,2013-12-22 13:50:00,
2013-12-22 07:51:00,28.3,26.5,29.63,NNE,23,6.9,15.0,93,0.00,,,0.00,WUHU216HW,2013-12-22 13:51:00,
2013-12-22 07:53:00,28.3,26.5,29.63,NNE,23,5.6,15.0,93,0.00,,,0.00,WUHU216HW,2013-12-22 13:53:00,
2013-12-22 07:57:00,28.3,26.5,29.63,NNE,22,4.6,17.4,93,0.00,,,0.00,WUHU216HW,2013-12-22 13:57:00,
2013-12-22 07:58:00,28.3,26.5,29.63,NNE,23,6.0,17.4,93,0.00,,,0.00,WUHU216HW,2013-12-22 13:58:00,
2013-12-22 07:59:00,28.3,26.5,29.63,NNE,23,6.3,17.4,93,0.00,,,0.00,WUHU216HW,2013-12-22 13:59:00,
2013-12-22 08:01:00,28.3,26.5,29.63,NNE,22,4.6,17.4,93,0.00,,,0.00,WUHU216HW,2013-12-22 14:01:00,
2013-12-22 08:02:00,28.3,26.5,29.63,NNE,23,4.7,17.4,93,0.00,,,0.00,WUHU216HW,2013-12-22 14:02:00,
2013-12-22 08:03:00,28.3,26.5,29.63,NNE,22,4.6,17.4,93,0.00,,,0.00,WUHU216HW,2013-12-22 14:03:00,
2013-12-22 08:04:00,28.3,26.5,29.63,NNE,22,4.6,17.4,93,0.00,,,0.00,WUHU216HW,2013-12-22 14:04:00,
2013-12-22 08:06:00,28.3,26.5,29.63,NNE,22,4.6,17.4,93,0.00,,,0.00,WUHU216HW,2013-12-22 14:06:00,
2013-12-22 08:07:00,28.3,26.5,29.63,NNE,23,5.1,17.4,93,0.00,,,0.00,WUHU216HW,2013-12-22 14:07:00,
2013-12-22 08:08:00,28.3,26.5,29.63,NNE,23,4.9,17.4,93,0.00,,,0.00,WUHU216HW,2013-12-22 14:08:00,
2013-12-22 08:09:00,28.3,26.5,29.63,NNE,22,4.6,17.4,93,0.00,,,0.00,WUHU216HW,2013-12-22 14:09:00,
2013-12-22 08:10:00,28.3,26.5,29.63,NNE,23,7.4,17.4,93,0.00,,,0.00,WUHU216HW,2013-12-22 14:10:00,
2013-12-22 08:11:00,28.3,26.5,29.63,NNE,22,4.6,17.4,93,0.00,,,0.00,WUHU216HW,2013-12-22 14:11:00,
2013-12-22 08:12:00,28.3,26.5,29.63,NNE,23,5.6,17.4,93,0.00,,,0.00,WUHU216HW,2013-12-22 14:12:00,
2013-12-22 08:13:00,28.3,26.5,29.63,NNE,23,5.1,17.4,93,0.00,,,0.00,WUHU216HW,2013-12-22 14:13:00,
2013-12-22 08:14:00,28.3,26.5,29.63,NNE,23,4.7,17.4,93,0.00,,,0.00,WUHU216HW,2013-12-22 14:14:00,
2013-12-22 08:15:00,28.3,26.5,29.63,NNE,23,4.9,17.4,93,0.00,,,0.00,WUHU216HW,2013-12-22 14:15:00,
2013-12-22 08:17:00,28.3,26.5,29.63,NNE,23,6.3,17.4,93,0.00,,,0.00,WUHU216HW,2013-12-22 14:17:00,
2013-12-22 08:18:00,28.3,26.5,29.63,NNE,23,8.3,17.4,93,0.00,,,0.00,WUHU216HW,2013-12-22 14:18:00,
2013-12-22 08:19:00,28.3,26.5,29.63,NNE,23,6.0,17.4,93,0.00,,,0.00,WUHU216HW,2013-12-22 14:19:00,
2013-12-22 08:20:00,28.3,26.5,29.63,NNE,23,4.7,17.4,93,0.00,,,0.00,WUHU216HW,2013-12-22 14:20:00,
2013-12-22 08:22:00,28.1,26.3,29.63,NNE,23,6.0,17.4,93,0.00,,,0.00,WUHU216HW,2013-12-22 14:22:00,
2013-12-22 08:24:00,28.3,26.5,29.63,NNE,23,9.8,17.4,93,0.00,,,0.00,WUHU216HW,2013-12-22 14:24:00,
2013-12-22 08:25:00,28.1,26.3,29.63,NNE,23,8.1,17.4,93,0.00,,,0.00,WUHU216HW,2013-12-22 14:25:00,
2013-12-22 08:27:00,28.3,26.5,29.62,NNE,23,9.6,17.4,93,0.00,,,0.00,WUHU216HW,2013-12-22 14:27:00,
2013-12-22 08:29:00,28.1,26.3,29.62,NNE,23,6.7,17.4,93,0.00,,,0.00,WUHU216HW,2013-12-22 14:29:00,
2013-12-22 08:30:00,28.1,26.3,29.62,NNE,23,6.5,17.0,93,0.00,,,0.00,WUHU216HW,2013-12-22 14:30:00,
2013-12-22 08:32:00,28.3,26.5,29.62,NNE,23,6.0,17.0,93,0.00,,,0.00,WUHU216HW,2013-12-22 14:32:00,
2013-12-22 08:33:00,28.3,26.5,29.62,NNE,23,6.9,17.0,93,0.00,,,0.00,WUHU216HW,2013-12-22 14:33:00,
2013-12-22 08:34:00,27.9,26.1,29.62,NNE,22,4.6,15.7,93,0.00,,,0.00,WUHU216HW,2013-12-22 14:34:00,
2013-12-22 08:35:00,27.9,26.1,29.62,NNE,22,4.6,15.7,93,0.00,,,0.00,WUHU216HW,2013-12-22 14:35:00,
2013-12-22 08:36:00,27.7,25.9,29.62,NNE,22,4.6,15.7,93,0.00,,,0.00,WUHU216HW,2013-12-22 14:36:00,
2013-12-22 08:37:00,27.5,25.7,29.62,NNE,22,4.6,15.7,93,0.00,,,0.00,WUHU216HW,2013-12-22 14:37:00,
2013-12-22 08:38:00,27.5,25.7,29.62,NNE,22,4.6,15.7,93,0.00,,,0.00,WUHU216HW,2013-12-22 14:38:00,
2013-12-22 08:40:00,27.2,25.4,29.62,NNE,22,4.6,15.7,93,0.00,,,0.00,WUHU216HW,2013-12-22 14:40:00,
2013-12-22 08:41:00,27.0,25.2,29.62,NNE,22,4.6,15.7,93,0.00,,,0.00,WUHU216HW,2013-12-22 14:41:00,
2013-12-22 08:42:00,27.0,25.0,29.62,NNE,23,6.0,15.0,92,0.00,,,0.00,WUHU216HW,2013-12-22 14:42:00,
2013-12-22 08:43:00,27.0,25.0,29.62,NNE,22,4.6,15.0,92,0.00,,,0.00,WUHU216HW,2013-12-22 14:43:00,
2013-12-22 08:45:00,26.8,24.9,29.61,NNE,23,5.8,15.0,92,0.00,,,0.00,WUHU216HW,2013-12-22 14:45:00,
2013-12-22 08:46:00,26.6,24.7,29.62,NNE,22,4.6,15.0,92,0.00,,,0.00,WUHU216HW,2013-12-22 14:46:00,
2013-12-22 08:47:00,26.6,24.7,29.62,NNE,22,4.6,15.0,92,0.00,,,0.00,WUHU216HW,2013-12-22 14:47:00,
2013-12-22 08:48:00,26.6,24.7,29.62,NNE,22,4.6,15.0,92,0.00,,,0.00,WUHU216HW,2013-12-22 14:48:00,
2013-12-22 08:50:00,26.6,24.7,29.62,NNE,22,4.6,15.0,92,0.00,,,0.00,WUHU216HW,2013-12-22 14:50:00,
2013-12-22 08:52:00,26.6,24.7,29.62,NNE,22,4.7,15.0,92,0.00,,,0.00,WUHU216HW,2013-12-22 14:52:00,
2013-12-22 08:53:00,26.5,24.5,29.63,NNE,22,4.6,15.0,92,0.00,,,0.00,WUHU216HW,2013-12-22 14:53:00,
2013-12-22 08:58:00,26.5,24.5,29.63,NNE,22,4.6,17.4,92,0.00,,,0.00,WUHU216HW,2013-12-22 14:58:00,
2013-12-22 08:59:00,26.5,24.5,29.63,NNE,22,4.6,17.4,92,0.00,,,0.00,WUHU216HW,2013-12-22 14:59:00,
2013-12-22 09:01:00,26.5,24.5,29.64,NNE,22,4.6,17.4,92,0.00,,,0.00,WUHU216HW,2013-12-22 15:01:00,
2013-12-22 09:03:00,26.5,24.5,29.64,NNE,22,4.6,17.4,92,0.00,,,0.00,WUHU216HW,2013-12-22 15:03:00,
2013-12-22 09:04:00,26.5,24.5,29.64,NNE,23,4.9,17.4,92,0.00,,,0.00,WUHU216HW,2013-12-22 15:04:00,
2013-12-22 09:05:00,26.6,24.7,29.65,NNE,22,4.6,17.4,92,0.00,,,0.00,WUHU216HW,2013-12-22 15:05:00,
2013-12-22 09:06:00,26.6,24.7,29.65,NNE,23,4.7,17.4,92,0.00,,,0.00,WUHU216HW,2013-12-22 15:06:00,
2013-12-22 09:08:00,26.6,24.7,29.65,NNE,22,4.6,17.4,92,0.00,,,0.00,WUHU216HW,2013-12-22 15:08:00,
2013-12-22 09:09:00,26.6,24.7,29.65,NNE,22,4.6,17.4,92,0.00,,,0.00,WUHU216HW,2013-12-22 15:09:00,
2013-12-22 09:11:00,26.5,24.5,29.65,NNE,22,4.6,17.4,92,0.00,,,0.00,WUHU216HW,2013-12-22 15:11:00,
2013-12-22 09:12:00,26.5,24.5,29.65,NNE,22,4.6,17.4,92,0.00,,,0.00,WUHU216HW,2013-12-22 15:12:00,
2013-12-22 09:13:00,26.5,24.5,29.66,NNE,22,4.6,17.4,92,0.00,,,0.00,WUHU216HW,2013-12-22 15:13:00,
2013-12-22 09:14:00,26.5,24.5,29.66,NNE,22,4.6,17.4,92,0.00,,,0.00,WUHU216HW,2013-12-22 15:14:00,
2013-12-22 09:16:00,26.5,24.5,29.66,NNE,23,5.4,17.4,92,0.00,,,0.00,WUHU216HW,2013-12-22 15:16:00,
2013-12-22 09:17:00,26.3,24.3,29.66,NNE,23,4.7,17.4,92,0.00,,,0.00,WUHU216HW,2013-12-22 15:17:00,
2013-12-22 09:19:00,26.3,24.3,29.66,NNE,23,5.4,17.4,92,0.00,,,0.00,WUHU216HW,2013-12-22 15:19:00,
2013-12-22 09:20:00,26.3,24.3,29.66,NNE,22,4.6,17.4,92,0.00,,,0.00,WUHU216HW,2013-12-22 15:20:00,
2013-12-22 09:22:00,26.3,24.3,29.66,NNE,22,4.6,17.4,92,0.00,,,0.00,WUHU216HW,2013-12-22 15:22:00,
2013-12-22 09:24:00,26.3,24.3,29.66,NNE,23,5.1,17.4,92,0.00,,,0.00,WUHU216HW,2013-12-22 15:24:00,
2013-12-22 09:25:00,26.3,24.3,29.67,NNE,22,4.6,17.4,92,0.00,,,0.00,WUHU216HW,2013-12-22 15:25:00,
2013-12-22 09:27:00,26.1,24.1,29.67,NNE,22,4.6,17.4,92,0.00,,,0.00,WUHU216HW,2013-12-22 15:27:00,
2013-12-22 09:29:00,26.1,24.1,29.67,NNE,22,4.6,17.4,92,0.00,,,0.00,WUHU216HW,2013-12-22 15:29:00,
2013-12-22 09:30:00,26.1,24.3,29.67,NNE,22,4.6,17.0,93,0.00,,,0.00,WUHU216HW,2013-12-22 15:30:00,
2013-12-22 09:31:00,26.1,24.3,29.67,NNE,22,4.5,17.0,93,0.00,,,0.00,WUHU216HW,2013-12-22 15:31:00,
2013-12-22 09:32:00,26.1,24.3,29.67,NNE,22,4.5,17.0,93,0.00,,,0.00,WUHU216HW,2013-12-22 15:32:00,
2013-12-22 09:33:00,26.1,24.3,29.67,NNE,23,4.7,17.0,93,0.00,,,0.00,WUHU216HW,2013-12-22 15:33:00,
2013-12-22 09:34:00,26.1,24.3,29.67,NNE,22,4.5,15.7,93,0.00,,,0.00,WUHU216HW,2013-12-22 15:34:00,
2013-12-22 09:35:00,26.1,24.3,29.67,NNE,23,5.4,15.7,93,0.00,,,0.00,WUHU216HW,2013-12-22 15:35:00,
2013-12-22 09:36:00,26.1,24.3,29.67,NNE,22,4.5,15.7,93,0.00,,,0.00,WUHU216HW,2013-12-22 15:36:00,
2013-12-22 09:39:00,26.1,24.3,29.67,NNE,23,5.4,15.7,93,0.00,,,0.00,WUHU216HW,2013-12-22 15:39:00,
2013-12-22 09:40:00,26.1,24.3,29.68,NNE,22,4.5,15.7,93,0.00,,,0.00,WUHU216HW,2013-12-22 15:40:00,
2013-12-22 09:42:00,26.1,24.3,29.68,NNE,22,4.6,15.7,93,0.00,,,0.00,WUHU216HW,2013-12-22 15:42:00,
2013-12-22 09:44:00,26.1,24.3,29.68,NNE,23,4.9,15.0,93,0.00,,,0.00,WUHU216HW,2013-12-22 15:44:00,
2013-12-22 09:45:00,26.1,24.3,29.69,NNE,23,5.6,15.0,93,0.00,,,0.00,WUHU216HW,2013-12-22 15:45:00,
2013-12-22 09:47:00,26.1,24.3,29.68,NNE,23,4.7,15.0,93,0.00,,,0.00,WUHU216HW,2013-12-22 15:47:00,
2013-12-22 09:49:00,25.9,24.1,29.68,NNE,23,4.7,15.0,93,0.00,,,0.00,WUHU216HW,2013-12-22 15:49:00,
2013-12-22 09:50:00,26.1,24.3,29.68,NNE,23,5.6,15.0,93,0.00,,,0.00,WUHU216HW,2013-12-22 15:50:00,
2013-12-22 09:53:00,25.9,24.1,29.68,NNE,22,4.6,15.0,93,0.00,,,0.00,WUHU216HW,2013-12-22 15:53:00,
2013-12-22 09:58:00,25.9,24.1,29.68,NNE,22,4.6,17.4,93,0.00,,,0.00,WUHU216HW,2013-12-22 15:58:00,
2013-12-22 10:01:00,25.7,23.9,29.68,NNE,22,4.6,17.4,93,0.00,,,0.00,WUHU216HW,2013-12-22 16:01:00,
2013-12-22 10:03:00,25.7,23.8,29.68,NNE,23,5.1,17.4,92,0.00,,,0.00,WUHU216HW,2013-12-22 16:03:00,
2013-12-22 10:06:00,25.7,23.8,29.68,NNE,22,4.6,17.4,92,0.00,,,0.00,WUHU216HW,2013-12-22 16:06:00,
2013-12-22 10:08:00,25.6,23.6,29.68,NNE,22,4.6,17.4,92,0.00,,,0.00,WUHU216HW,2013-12-22 16:08:00,
2013-12-22 10:11:00,25.6,23.6,29.68,NNE,22,4.6,17.4,92,0.00,,,0.00,WUHU216HW,2013-12-22 16:11:00,
2013-12-22 10:12:00,25.6,23.6,29.67,NNE,22,4.6,17.4,92,0.00,,,0.00,WUHU216HW,2013-12-22 16:12:00,
2013-12-22 10:13:00,25.6,23.6,29.67,NNE,22,4.6,17.4,92,0.00,,,0.00,WUHU216HW,2013-12-22 16:13:00,
2013-12-22 10:16:00,25.7,23.8,29.67,NNE,22,4.6,17.4,92,0.00,,,0.00,WUHU216HW,2013-12-22 16:16:00,
2013-12-22 10:17:00,25.7,23.8,29.67,NNE,22,4.6,17.4,92,0.00,,,0.00,WUHU216HW,2013-12-22 16:17:00,
2013-12-22 10:20:00,25.6,23.6,29.67,NNE,23,4.7,17.4,92,0.00,,,0.00,WUHU216HW,2013-12-22 16:20:00,
2013-12-22 10:21:00,25.6,23.6,29.67,NNE,22,4.6,17.4,92,0.00,,,0.00,WUHU216HW,2013-12-22 16:21:00,
2013-12-22 10:22:00,25.6,23.6,29.67,NNE,22,4.6,17.4,92,0.00,,,0.00,WUHU216HW,2013-12-22 16:22:00,
2013-12-22 10:25:00,25.6,23.6,29.67,NNE,22,4.6,17.4,92,0.00,,,0.00,WUHU216HW,2013-12-22 16:25:00,
2013-12-22 10:26:00,25.6,23.6,29.67,NNE,23,4.7,17.4,92,0.00,,,0.00,WUHU216HW,2013-12-22 16:26:00,
2013-12-22 10:27:00,25.6,23.6,29.67,NNE,23,7.2,17.4,92,0.00,,,0.00,WUHU216HW,2013-12-22 16:27:00,
2013-12-22 10:28:00,25.6,23.6,29.67,NNE,23,4.7,17.4,92,0.00,,,0.00,WUHU216HW,2013-12-22 16:28:00,
2013-12-22 10:31:00,25.7,23.8,29.67,NNE,23,5.1,17.0,92,0.00,,,0.00,WUHU216HW,2013-12-22 16:31:00,
2013-12-22 10:32:00,25.9,24.0,29.67,NNE,22,4.5,17.0,92,0.00,,,0.00,WUHU216HW,2013-12-22 16:32:00,
2013-12-22 10:33:00,25.9,24.0,29.67,NNE,22,4.5,17.0,92,0.00,,,0.00,WUHU216HW,2013-12-22 16:33:00,
2013-12-22 10:37:00,25.9,24.0,29.67,NNE,22,4.5,15.7,92,0.00,,,0.00,WUHU216HW,2013-12-22 16:37:00,
2013-12-22 10:38:00,25.9,24.0,29.67,NNE,23,6.3,15.7,92,0.00,,,0.00,WUHU216HW,2013-12-22 16:38:00,
2013-12-22 10:42:00,25.9,24.0,29.68,NNE,22,4.6,15.7,92,0.00,,,0.00,WUHU216HW,2013-12-22 16:42:00,
2013-12-22 10:43:00,26.1,24.1,29.68,NNE,22,4.6,15.0,92,0.00,,,0.00,WUHU216HW,2013-12-22 16:43:00,
2013-12-22 10:47:00,26.3,24.3,29.68,NNE,23,6.0,15.0,92,0.00,,,0.00,WUHU216HW,2013-12-22 16:47:00,
2013-12-22 10:48:00,26.3,24.3,29.68,NNE,22,4.6,15.0,92,0.00,,,0.00,WUHU216HW,2013-12-22 16:48:00,
2013-12-22 10:49:00,26.3,24.3,29.68,NNE,23,4.7,15.0,92,0.00,,,0.00,WUHU216HW,2013-12-22 16:49:00,
2013-12-22 10:53:00,26.1,24.1,29.69,NNE,22,4.6,15.0,92,0.00,,,0.00,WUHU216HW,2013-12-22 16:53:00,
2013-12-22 10:54:00,26.1,24.1,29.69,NNE,23,4.7,15.0,92,0.00,,,0.00,WUHU216HW,2013-12-22 16:54:00,
2013-12-22 10:58:00,26.1,24.1,29.69,NNE,23,8.7,17.4,92,0.00,,,0.00,WUHU216HW,2013-12-22 16:58:00,
2013-12-22 10:59:00,26.1,24.1,29.69,NNE,23,5.4,17.4,92,0.00,,,0.00,WUHU216HW,2013-12-22 16:59:00,
2013-12-22 11:00:00,26.3,24.3,29.69,NNE,23,5.1,17.4,92,0.00,,,0.00,WUHU216HW,2013-12-22 17:00:00,
2013-12-22 11:01:00,26.1,24.1,29.69,NNE,23,8.5,17.4,92,0.00,,,0.00,WUHU216HW,2013-12-22 17:01:00,
2013-12-22 11:02:00,26.3,24.3,29.69,NNE,22,4.6,17.4,92,0.00,,,0.00,WUHU216HW,2013-12-22 17:02:00,
2013-12-22 11:03:00,26.1,24.1,29.69,NNE,22,4.6,17.4,92,0.00,,,0.00,WUHU216HW,2013-12-22 17:03:00,
2013-12-22 11:04:00,26.3,24.3,29.69,NNE,22,4.6,17.4,92,0.00,,,0.00,WUHU216HW,2013-12-22 17:04:00,
2013-12-22 11:06:00,26.1,24.1,29.69,NNE,22,4.6,17.4,92,0.00,,,0.00,WUHU216HW,2013-12-22 17:06:00,
2013-12-22 11:08:00,26.1,24.1,29.69,NNE,22,4.6,17.4,92,0.00,,,0.00,WUHU216HW,2013-12-22 17:08:00,
2013-12-22 11:09:00,26.3,24.3,29.68,NNE,23,5.8,17.4,92,0.00,,,0.00,WUHU216HW,2013-12-22 17:09:00,
2013-12-22 11:11:00,26.3,24.3,29.68,NNE,23,5.4,17.4,92,0.00,,,0.00,WUHU216HW,2013-12-22 17:11:00,
2013-12-22 11:12:00,26.3,24.3,29.68,NNE,23,4.7,17.4,92,0.00,,,0.00,WUHU216HW,2013-12-22 17:12:00,
2013-12-22 11:13:00,26.3,24.3,29.68,NNE,23,4.7,17.4,92,0.00,,,0.00,WUHU216HW,2013-12-22 17:13:00,
2013-12-22 11:14:00,26.3,24.3,29.68,NNE,23,6.3,17.4,92,0.00,,,0.00,WUHU216HW,2013-12-22 17:14:00,
2013-12-22 11:16:00,26.3,24.3,29.67,NNE,22,4.6,17.4,92,0.00,,,0.00,WUHU216HW,2013-12-22 17:16:00,
2013-12-22 11:17:00,26.3,24.3,29.67,NNE,23,5.8,17.4,92,0.00,,,0.00,WUHU216HW,2013-12-22 17:17:00,
2013-12-22 11:18:00,26.3,24.3,29.67,NNE,22,4.5,17.4,92,0.00,,,0.00,WUHU216HW,2013-12-22 17:18:00,
2013-12-22 11:19:00,26.3,24.3,29.67,NNE,23,5.6,17.4,92,0.00,,,0.00,WUHU216HW,2013-12-22 17:19:00,
2013-12-22 11:21:00,26.3,24.3,29.68,NNE,22,4.6,17.4,92,0.00,,,0.00,WUHU216HW,2013-12-22 17:21:00,
2013-12-22 11:22:00,26.3,24.3,29.68,NNE,23,6.5,17.4,92,0.00,,,0.00,WUHU216HW,2013-12-22 17:22:00,
2013-12-22 11:23:00,26.3,24.3,29.68,NNE,22,4.6,17.4,92,0.00,,,0.00,WUHU216HW,2013-12-22 17:23:00,
2013-12-22 11:24:00,26.3,24.3,29.68,NNE,23,6.3,17.4,92,0.00,,,0.00,WUHU216HW,2013-12-22 17:24:00,
2013-12-22 11:26:00,26.3,24.3,29.68,NNE,22,4.6,17.4,92,0.00,,,0.00,WUHU216HW,2013-12-22 17:26:00,
2013-12-22 11:27:00,26.5,24.5,29.68,NNE,22,4.6,17.4,92,0.00,,,0.00,WUHU216HW,2013-12-22 17:27:00,
2013-12-22 11:29:00,26.5,24.5,29.68,NNE,23,5.1,17.4,92,0.00,,,0.00,WUHU216HW,2013-12-22 17:29:00,
2013-12-22 11:30:00,26.6,24.7,29.68,NNE,23,6.5,17.0,92,0.00,,,0.00,WUHU216HW,2013-12-22 17:30:00,
2013-12-22 11:32:00,26.6,24.7,29.68,NNE,23,5.6,17.0,92,0.00,,,0.00,WUHU216HW,2013-12-22 17:32:00,
2013-12-22 11:33:00,26.6,24.7,29.68,NNE,23,6.0,17.0,92,0.00,,,0.00,WUHU216HW,2013-12-22 17:33:00,
2013-12-22 11:34:00,26.5,24.5,29.68,NNE,23,4.7,15.7,92,0.00,,,0.00,WUHU216HW,2013-12-22 17:34:00,
2013-12-22 11:35:00,26.5,24.5,29.68,NNE,23,4.7,15.7,92,0.00,,,0.00,WUHU216HW,2013-12-22 17:35:00,
2013-12-22 11:37:00,26.5,24.5,29.69,NNE,22,4.5,15.7,92,0.00,,,0.00,WUHU216HW,2013-12-22 17:37:00,
2013-12-22 11:38:00,26.6,24.7,29.68,NNE,22,4.5,15.7,92,0.00,,,0.00,WUHU216HW,2013-12-22 17:38:00,
2013-12-22 11:39:00,26.8,24.9,29.68,NNE,22,4.5,15.7,92,0.00,,,0.00,WUHU216HW,2013-12-22 17:39:00,
2013-12-22 11:40:00,27.0,25.0,29.68,NNE,22,4.5,15.7,92,0.00,,,0.00,WUHU216HW,2013-12-22 17:40:00,
2013-12-22 11:42:00,27.0,25.0,29.69,NNE,23,7.4,15.7,92,0.00,,,0.00,WUHU216HW,2013-12-22 17:42:00,
2013-12-22 11:43:00,26.8,24.9,29.69,NNE,23,6.0,15.0,92,0.00,,,0.00,WUHU216HW,2013-12-22 17:43:00,
2013-12-22 11:44:00,26.6,24.7,29.69,NNE,22,4.6,15.0,92,0.00,,,0.00,WUHU216HW,2013-12-22 17:44:00,
2013-12-22 11:45:00,26.5,24.5,29.70,NNE,22,4.6,15.0,92,0.00,,,0.00,WUHU216HW,2013-12-22 17:45:00,
2013-12-22 11:47:00,26.3,24.3,29.70,NNE,23,6.0,15.0,92,0.00,,,0.00,WUHU216HW,2013-12-22 17:47:00,
2013-12-22 11:48:00,26.3,24.3,29.70,NNE,22,4.6,15.0,92,0.00,,,0.00,WUHU216HW,2013-12-22 17:48:00,
2013-12-22 11:49:00,26.5,24.5,29.70,NNE,22,4.6,15.0,92,0.00,,,0.00,WUHU216HW,2013-12-22 17:49:00,
2013-12-22 11:50:00,26.5,24.5,29.70,NNE,22,4.6,15.0,92,0.00,,,0.00,WUHU216HW,2013-12-22 17:50:00,
2013-12-22 11:52:00,26.5,24.5,29.69,NNE,23,6.7,15.0,92,0.00,,,0.00,WUHU216HW,2013-12-22 17:52:00,
2013-12-22 11:53:00,26.5,24.5,29.69,NNE,22,4.7,15.0,92,0.00,,,0.00,WUHU216HW,2013-12-22 17:53:00,
2013-12-22 11:59:00,26.3,24.3,29.70,NNE,22,4.6,17.4,92,0.00,,,0.00,WUHU216HW,2013-12-22 17:59:00,
2013-12-22 12:00:00,26.3,24.3,29.70,NNE,22,4.6,17.4,92,0.00,,,0.00,WUHU216HW,2013-12-22 18:00:00,
2013-12-22 12:01:00,26.3,24.3,29.70,NNE,23,6.5,17.4,92,0.00,,,0.00,WUHU216HW,2013-12-22 18:01:00,
2013-12-22 12:04:00,26.1,23.9,29.70,NNE,23,7.8,17.4,91,0.00,,,0.00,WUHU216HW,2013-12-22 18:04:00,
2013-12-22 12:05:00,26.1,23.9,29.70,NNE,23,6.3,17.4,91,0.00,,,0.00,WUHU216HW,2013-12-22 18:05:00,
2013-12-22 12:06:00,26.3,24.0,29.70,NNE,23,6.3,17.4,91,0.00,,,0.00,WUHU216HW,2013-12-22 18:06:00,
2013-12-22 12:09:00,26.3,24.0,29.70,NNE,22,4.6,17.4,91,0.00,,,0.00,WUHU216HW,2013-12-22 18:09:00,
2013-12-22 12:10:00,26.5,24.2,29.70,NNE,22,4.6,17.4,91,0.00,,,0.00,WUHU216HW,2013-12-22 18:10:00,
2013-12-22 12:11:00,26.5,24.2,29.70,NNE,23,7.8,17.4,91,0.00,,,0.00,WUHU216HW,2013-12-22 18:11:00,
2013-12-22 12:15:00,26.5,24.2,29.69,NNE,23,5.8,17.4,91,0.00,,,0.00,WUHU216HW,2013-12-22 18:15:00,
2013-12-22 12:16:00,26.6,24.4,29.69,NNE,23,6.9,17.4,91,0.00,,,0.00,WUHU216HW,2013-12-22 18:16:00,
2013-12-22 12:17:00,26.6,24.4,29.69,NNE,23,7.6,17.4,91,0.00,,,0.00,WUHU216HW,2013-12-22 18:17:00,
2013-12-22 12:20:00,26.5,24.2,29.69,NNE,22,4.5,17.4,91,0.00,,,0.00,WUHU216HW,2013-12-22 18:20:00,
2013-12-22 12:21:00,26.5,24.5,29.69,NNE,22,4.5,17.4,92,0.00,,,0.00,WUHU216HW,2013-12-22 18:21:00,
2013-12-22 12:22:00,26.3,24.3,29.69,NNE,23,5.4,17.4,92,0.00,,,0.00,WUHU216HW,2013-12-22 18:22:00,
2013-12-22 12:25:00,25.9,23.7,29.69,NNE,23,5.1,17.4,91,0.00,,,0.00,WUHU216HW,2013-12-22 18:25:00,
2013-12-22 12:26:00,25.9,23.7,29.69,NNE,23,4.9,17.4,91,0.00,,,0.00,WUHU216HW,2013-12-22 18:26:00,
2013-12-22 12:27:00,25.9,23.7,29.69,NNE,22,4.6,17.4,91,0.00,,,0.00,WUHU216HW,2013-12-22 18:27:00,
2013-12-22 12:30:00,25.6,23.3,29.68,NNE,22,4.5,17.0,91,0.00,,,0.00,WUHU216HW,2013-12-22 18:30:00,
2013-12-22 12:31:00,25.6,23.3,29.68,NNE,23,5.1,17.0,91,0.00,,,0.00,WUHU216HW,2013-12-22 18:31:00,
2013-12-22 12:32:00,25.6,23.3,29.68,NNE,22,4.5,17.0,91,0.00,,,0.00,WUHU216HW,2013-12-22 18:32:00,
2013-12-22 12:35:00,25.6,23.3,29.69,NNE,23,10.5,15.7,91,0.00,,,0.00,WUHU216HW,2013-12-22 18:35:00,
2013-12-22 12:36:00,25.6,23.3,29.69,NNE,23,9.4,15.7,91,0.00,,,0.00,WUHU216HW,2013-12-22 18:36:00,
2013-12-22 12:37:00,25.6,23.3,29.69,NNE,23,4.9,15.7,91,0.00,,,0.00,WUHU216HW,2013-12-22 18:37:00,
2013-12-22 12:38:00,25.6,23.3,29.69,NNE,23,6.3,15.7,91,0.00,,,0.00,WUHU216HW,2013-12-22 18:38:00,
2013-12-22 12:41:00,26.3,24.0,29.69,NNE,23,4.7,15.7,91,0.00,,,0.00,WUHU216HW,2013-12-22 18:41:00,
2013-12-22 12:42:00,26.3,24.0,29.69,NNE,23,5.6,15.7,91,0.00,,,0.00,WUHU216HW,2013-12-22 18:42:00,
2013-12-22 12:43:00,26.3,24.0,29.69,NNE,23,7.2,15.0,91,0.00,,,0.00,WUHU216HW,2013-12-22 18:43:00,
2013-12-22 12:44:00,26.5,24.2,29.70,NNE,23,7.6,15.0,91,0.00,,,0.00,WUHU216HW,2013-12-22 18:44:00,
2013-12-22 12:46:00,26.5,24.2,29.69,NNE,22,4.6,15.0,91,0.00,,,0.00,WUHU216HW,2013-12-22 18:46:00,
2013-12-22 12:47:00,26.1,24.1,29.70,NNE,23,7.8,15.0,92,0.00,,,0.00,WUHU216HW,2013-12-22 18:47:00,
2013-12-22 12:48:00,26.3,24.3,29.70,NNE,22,4.6,15.0,92,0.00,,,0.00,WUHU216HW,2013-12-22 18:48:00,
2013-12-22 12:49:00,26.1,24.1,29.70,NNE,23,5.4,15.0,92,0.00,,,0.00,WUHU216HW,2013-12-22 18:49:00,
2013-12-22 12:51:00,26.1,23.9,29.70,NNE,22,4.6,15.0,91,0.00,,,0.00,WUHU216HW,2013-12-22 18:51:00,
2013-12-22 12:53:00,26.3,24.0,29.71,NNE,23,8.7,15.0,91,0.00,,,0.00,WUHU216HW,2013-12-22 18:53:00,
2013-12-22 12:58:00,26.5,24.5,29.70,NNE,23,6.7,17.4,92,0.00,,,0.00,WUHU216HW,2013-12-22 18:58:00,
2013-12-22 13:01:00,26.6,24.7,29.70,NNE,22,4.6,17.4,92,0.00,,,0.00,WUHU216HW,2013-12-22 19:01:00,
2013-12-22 13:02:00,26.5,24.5,29.70,NNE,22,4.6,17.4,92,0.00,,,0.00,WUHU216HW,2013-12-22 19:02:00,
2013-12-22 13:03:00,26.6,24.4,29.70,NNE,22,4.6,17.4,91,0.00,,,0.00,WUHU216HW,2013-12-22 19:03:00,
2013-12-22 13:04:00,26.6,24.7,29.70,NNE,22,4.6,17.4,92,0.00,,,0.00,WUHU216HW,2013-12-22 19:04:00,
2013-12-22 13:06:00,26.3,24.0,29.70,NNE,22,4.6,17.4,91,0.00,,,0.00,WUHU216HW,2013-12-22 19:06:00,
2013-12-22 13:07:00,26.3,24.0,29.70,NNE,22,4.6,17.4,91,0.00,,,0.00,WUHU216HW,2013-12-22 19:07:00,
2013-12-22 13:08:00,26.3,24.0,29.70,NNE,22,4.6,17.4,91,0.00,,,0.00,WUHU216HW,2013-12-22 19:08:00,
2013-12-22 13:09:00,26.3,24.0,29.70,NNE,22,4.6,17.4,91,0.00,,,0.00,WUHU216HW,2013-12-22 19:09:00,
2013-12-22 13:11:00,26.3,24.0,29.71,NNE,22,4.6,17.4,91,0.00,,,0.00,WUHU216HW,2013-12-22 19:11:00,
2013-12-22 13:12:00,26.3,24.0,29.71,NNE,22,4.6,17.4,91,0.00,,,0.00,WUHU216HW,2013-12-22 19:12:00,
2013-12-22 13:13:00,26.3,24.0,29.71,NNE,22,4.6,17.4,91,0.00,,,0.00,WUHU216HW,2013-12-22 19:13:00,
2013-12-22 13:14:00,26.3,24.0,29.71,NNE,23,7.2,17.4,91,0.00,,,0.00,WUHU216HW,2013-12-22 19:14:00,
2013-12-22 13:17:00,26.3,24.0,29.71,NNE,22,4.6,17.4,91,0.00,,,0.00,WUHU216HW,2013-12-22 19:17:00,
2013-12-22 13:18:00,26.3,24.0,29.71,NNE,23,6.7,17.4,91,0.00,,,0.00,WUHU216HW,2013-12-22 19:18:00,
2013-12-22 13:19:00,26.3,24.0,29.71,NNE,22,4.6,17.4,91,0.00,,,0.00,WUHU216HW,2013-12-22 19:19:00,
2013-12-22 13:22:00,25.9,23.7,29.71,NNE,23,5.1,17.4,91,0.00,,,0.00,WUHU216HW,2013-12-22 19:22:00,
2013-12-22 13:23:00,25.7,23.5,29.71,NNE,23,4.9,17.4,91,0.00,,,0.00,WUHU216HW,2013-12-22 19:23:00,
2013-12-22 13:24:00,25.9,23.7,29.71,NNE,22,4.6,17.4,91,0.00,,,0.00,WUHU216HW,2013-12-22 19:24:00,
2013-12-22 13:27:00,25.9,23.7,29.71,NNE,23,6.7,17.4,91,0.00,,,0.00,WUHU216HW,2013-12-22 19:27:00,
2013-12-22 13:29:00,26.1,23.9,29.71,NNE,22,4.6,17.4,91,0.00,,,0.00,WUHU216HW,2013-12-22 19:29:00,
2013-12-22 13:32:00,26.3,24.0,29.72,NNE,23,8.3,17.0,91,0.00,,,0.00,WUHU216HW,2013-12-22 19:32:00,
2013-12-22 13:33:00,26.1,23.9,29.71,NNE,23,7.6,17.0,91,0.00,,,0.00,WUHU216HW,2013-12-22 19:33:00,
2013-12-22 13:34:00,26.1,23.9,29.71,NNE,23,6.3,15.7,91,0.00,,,0.00,WUHU216HW,2013-12-22 19:34:00,
2013-12-22 13:35:00,26.3,24.0,29.72,NNE,22,4.5,15.7,91,0.00,,,0.00,WUHU216HW,2013-12-22 19:35:00,
2013-12-22 13:37:00,26.1,23.9,29.72,NNE,23,5.8,15.7,91,0.00,,,0.00,WUHU216HW,2013-12-22 19:37:00,
2013-12-22 13:38:00,26.1,23.9,29.72,NNE,23,6.9,15.7,91,0.00,,,0.00,WUHU216HW,2013-12-22 19:38:00,
2013-12-22 13:39:00,26.1,23.9,29.72,NNE,23,5.6,15.7,91,0.00,,,0.00,WUHU216HW,2013-12-22 19:39:00,
2013-12-22 13:40:00,25.9,23.7,29.72,NNE,23,6.3,15.7,91,0.00,,,0.00,WUHU216HW,2013-12-22 19:40:00,
2013-12-22 13:42:00,25.7,23.5,29.72,NNE,23,5.6,15.0,91,0.00,,,0.00,WUHU216HW,2013-12-22 19:42:00,
2013-12-22 13:43:00,25.6,23.3,29.72,NNE,23,7.8,15.0,91,0.00,,,0.00,WUHU216HW,2013-12-22 19:43:00,
2013-12-22 13:44:00,25.6,23.3,29.72,NNE,23,6.3,15.0,91,0.00,,,0.00,WUHU216HW,2013-12-22 19:44:00,
2013-12-22 13:45:00,25.6,23.3,29.72,NNE,22,4.6,15.0,91,0.00,,,0.00,WUHU216HW,2013-12-22 19:45:00,
2013-12-22 13:47:00,25.6,23.3,29.72,NNE,22,4.6,15.0,91,0.00,,,0.00,WUHU216HW,2013-12-22 19:47:00,
2013-12-22 13:48:00,25.6,23.3,29.72,NNE,22,4.6,15.0,91,0.00,,,0.00,WUHU216HW,2013-12-22 19:48:00,
2013-12-22 13:49:00,25.6,23.3,29.72,NNE,23,8.5,15.0,91,0.00,,,0.00,WUHU216HW,2013-12-22 19:49:00,
2013-12-22 13:50:00,25.6,23.3,29.72,NNE,23,6.0,15.0,91,0.00,,,0.00,WUHU216HW,2013-12-22 19:50:00,
2013-12-22 13:53:00,25.6,23.3,29.73,NNE,23,5.1,15.0,91,0.00,,,0.00,WUHU216HW,2013-12-22 19:53:00,
2013-12-22 13:54:00,25.6,23.3,29.73,NNE,23,5.8,17.4,91,0.00,,,0.00,WUHU216HW,2013-12-22 19:54:00,
2013-12-22 13:58:00,25.4,23.1,29.73,NNE,22,4.6,17.4,91,0.00,,,0.00,WUHU216HW,2013-12-22 19:58:00,
2013-12-22 14:00:00,25.4,23.1,29.73,NNE,23,9.6,17.4,91,0.00,,,0.00,WUHU216HW,2013-12-22 20:00:00,
2013-12-22 14:01:00,25.2,23.0,29.73,NNE,23,4.7,17.4,91,0.00,,,0.00,WUHU216HW,2013-12-22 20:01:00,
2013-12-22 14:02:00,25.2,23.0,29.73,NNE,22,4.6,17.4,91,0.00,,,0.00,WUHU216HW,2013-12-22 20:02:00,
2013-12-22 14:03:00,25.2,23.0,29.74,NNE,22,4.6,17.4,91,0.00,,,0.00,WUHU216HW,2013-12-22 20:03:00,
2013-12-22 14:05:00,25.2,22.7,29.74,NNE,22,4.6,17.4,90,0.00,,,0.00,WUHU216HW,2013-12-22 20:05:00,
2013-12-22 14:06:00,25.2,23.0,29.74,NNE,23,5.1,17.4,91,0.00,,,0.00,WUHU216HW,2013-12-22 20:06:00,
2013-12-22 14:07:00,25.2,23.0,29.74,NNE,23,5.1,17.4,91,0.00,,,0.00,WUHU216HW,2013-12-22 20:07:00,
2013-12-22 14:08:00,25.2,23.0,29.74,NNE,22,4.6,17.4,91,0.00,,,0.00,WUHU216HW,2013-12-22 20:08:00,
2013-12-22 14:10:00,25.0,22.8,29.74,NNE,22,4.6,17.4,91,0.00,,,0.00,WUHU216HW,2013-12-22 20:10:00,
2013-12-22 14:11:00,25.2,23.0,29.74,NNE,23,5.4,17.4,91,0.00,,,0.00,WUHU216HW,2013-12-22 20:11:00,
2013-12-22 14:12:00,25.2,23.0,29.74,NNE,22,4.6,17.4,91,0.00,,,0.00,WUHU216HW,2013-12-22 20:12:00,
2013-12-22 14:13:00,25.2,23.0,29.74,NNE,22,4.6,17.4,91,0.00,,,0.00,WUHU216HW,2013-12-22 20:13:00,
2013-12-22 14:15:00,25.2,23.0,29.74,NNE,22,4.6,17.4,91,0.00,,,0.00,WUHU216HW,2013-12-22 20:15:00,
2013-12-22 14:16:00,25.2,23.0,29.74,NNE,22,4.6,17.4,91,0.00,,,0.00,WUHU216HW,2013-12-22 20:16:00,
2013-12-22 14:17:00,25.2,23.0,29.74,NNE,22,4.6,17.4,91,0.00,,,0.00,WUHU216HW,2013-12-22 20:17:00,
2013-12-22 14:18:00,25.2,23.0,29.74,NNE,22,4.6,17.4,91,0.00,,,0.00,WUHU216HW,2013-12-22 20:18:00,
2013-12-22 14:19:00,25.2,23.0,29.74,NNE,22,4.6,17.4,91,0.00,,,0.00,WUHU216HW,2013-12-22 20:19:00,
2013-12-22 14:21:00,25.2,23.0,29.75,NNE,22,4.6,17.4,91,0.00,,,0.00,WUHU216HW,2013-12-22 20:21:00,
2013-12-22 14:22:00,25.2,23.0,29.75,NNE,23,4.7,17.4,91,0.00,,,0.00,WUHU216HW,2013-12-22 20:22:00,
2013-12-22 14:23:00,25.2,22.7,29.75,NNE,23,5.1,17.4,90,0.00,,,0.00,WUHU216HW,2013-12-22 20:23:00,
2013-12-22 14:24:00,25.2,23.0,29.75,NNE,23,5.1,17.4,91,0.00,,,0.00,WUHU216HW,2013-12-22 20:24:00,
2013-12-22 14:26:00,25.2,22.7,29.75,NNE,22,4.6,17.4,90,0.00,,,0.00,WUHU216HW,2013-12-22 20:26:00,
2013-12-22 14:27:00,25.2,23.0,29.75,NNE,22,4.6,17.4,91,0.00,,,0.00,WUHU216HW,2013-12-22 20:27:00,
2013-12-22 14:28:00,25.4,22.9,29.75,NNE,22,4.6,17.4,90,0.00,,,0.00,WUHU216HW,2013-12-22 20:28:00,
2013-12-22 14:29:00,25.4,22.9,29.75,NNE,22,4.6,17.4,90,0.00,,,0.00,WUHU216HW,2013-12-22 20:29:00,
2013-12-22 14:31:00,25.4,23.1,29.76,NNE,22,4.6,17.0,91,0.00,,,0.00,WUHU216HW,2013-12-22 20:31:00,
2013-12-22 14:32:00,25.4,23.1,29.76,NNE,22,4.6,17.0,91,0.00,,,0.00,WUHU216HW,2013-12-22 20:32:00,
2013-12-22 14:33:00,25.4,23.1,29.76,NNE,22,4.6,17.0,91,0.00,,,0.00,WUHU216HW,2013-12-22 20:33:00,
2013-12-22 14:34:00,25.4,22.9,29.76,NNE,22,4.6,15.7,90,0.00,,,0.00,WUHU216HW,2013-12-22 20:34:00,
2013-12-22 14:36:00,25.2,22.7,29.76,NNE,22,4.5,15.7,90,0.00,,,0.00,WUHU216HW,2013-12-22 20:36:00,
2013-12-22 14:37:00,25.2,22.7,29.76,NNE,22,4.5,15.7,90,0.00,,,0.00,WUHU216HW,2013-12-22 20:37:00,
2013-12-22 14:38:00,25.2,22.7,29.76,NNE,22,4.6,15.7,90,0.00,,,0.00,WUHU216HW,2013-12-22 20:38:00,
2013-12-22 14:39:00,25.0,22.5,29.76,NNE,22,4.6,15.7,90,0.00,,,0.00,WUHU216HW,2013-12-22 20:39:00,
2013-12-22 14:41:00,25.0,22.5,29.76,NNE,22,4.6,15.7,90,0.00,,,0.00,WUHU216HW,2013-12-22 20:41:00,
2013-12-22 14:42:00,25.0,22.5,29.76,NNE,23,4.9,15.0,90,0.00,,,0.00,WUHU216HW,2013-12-22 20:42:00,
2013-12-22 14:43:00,25.0,22.5,29.76,NNE,23,5.4,15.0,90,0.00,,,0.00,WUHU216HW,2013-12-22 20:43:00,
2013-12-22 14:44:00,25.0,22.5,29.76,NNE,23,6.7,15.0,90,0.00,,,0.00,WUHU216HW,2013-12-22 20:44:00,
2013-12-22 14:45:00,24.8,22.1,29.77,NNE,23,5.4,15.0,89,0.00,,,0.00,WUHU216HW,2013-12-22 20:45:00,
2013-12-22 14:46:00,25.0,22.2,29.77,NNE,22,4.6,15.0,89,0.00,,,0.00,WUHU216HW,2013-12-22 20:46:00,
2013-12-22 14:47:00,25.0,22.5,29.77,NNE,22,4.6,15.0,90,0.00,,,0.00,WUHU216HW,2013-12-22 20:47:00,
2013-12-22 14:48:00,25.0,22.2,29.77,NNE,22,4.6,15.0,89,0.00,,,0.00,WUHU216HW,2013-12-22 20:48:00,
2013-12-22 14:49:00,25.0,22.2,29.77,NNE,22,4.6,15.0,89,0.00,,,0.00,WUHU216HW,2013-12-22 20:49:00,
2013-12-22 14:50:00,24.8,22.1,29.77,NNE,23,6.0,15.0,89,0.00,,,0.00,WUHU216HW,2013-12-22 20:50:00,
2013-12-22 14:51:00,24.8,22.1,29.77,NNE,22,4.6,15.0,89,0.00,,,0.00,WUHU216HW,2013-12-22 20:51:00,
2013-12-22 14:53:00,24.8,22.1,29.77,NNE,22,4.7,15.0,89,0.00,,,0.00,WUHU216HW,2013-12-22 20:53:00,
2013-12-22 14:54:00,24.8,22.1,29.77,NNE,22,4.6,17.4,89,0.00,,,0.00,WUHU216HW,2013-12-22 20:54:00,
2013-12-22 14:58:00,24.8,22.1,29.78,NNE,22,4.6,17.4,89,0.00,,,0.00,WUHU216HW,2013-12-22 20:58:00,
2013-12-22 14:59:00,24.8,22.1,29.78,NNE,22,4.6,17.4,89,0.00,,,0.00,WUHU216HW,2013-12-22 20:59:00,
2013-12-22 15:00:00,24.8,22.1,29.78,NNE,22,4.6,17.4,89,0.00,,,0.00,WUHU216HW,2013-12-22 21:00:00,
2013-12-22 15:02:00,24.8,22.1,29.78,NNE,22,4.6,17.4,89,0.00,,,0.00,WUHU216HW,2013-12-22 21:02:00,
2013-12-22 15:03:00,24.8,22.1,29.78,NNE,22,4.6,17.4,89,0.00,,,0.00,WUHU216HW,2013-12-22 21:03:00,
2013-12-22 15:04:00,24.8,22.1,29.78,NNE,23,7.8,17.4,89,0.00,,,0.00,WUHU216HW,2013-12-22 21:04:00,
2013-12-22 15:05:00,24.8,22.1,29.78,NNE,22,4.6,17.4,89,0.00,,,0.00,WUHU216HW,2013-12-22 21:05:00,
2013-12-22 15:07:00,24.8,22.1,29.78,NNE,22,4.6,17.4,89,0.00,,,0.00,WUHU216HW,2013-12-22 21:07:00,
2013-12-22 15:08:00,24.8,22.1,29.78,NNE,23,6.3,17.4,89,0.00,,,0.00,WUHU216HW,2013-12-22 21:08:00,
2013-12-22 15:09:00,24.8,22.1,29.78,NNE,23,5.4,17.4,89,0.00,,,0.00,WUHU216HW,2013-12-22 21:09:00,
2013-12-22 15:10:00,24.7,21.9,29.78,NNE,23,5.6,17.4,89,0.00,,,0.00,WUHU216HW,2013-12-22 21:10:00,
2013-12-22 15:12:00,24.7,21.9,29.78,NNE,22,4.6,17.4,89,0.00,,,0.00,WUHU216HW,2013-12-22 21:12:00,
2013-12-22 15:13:00,24.5,21.7,29.78,NNE,22,4.6,17.4,89,0.00,,,0.00,WUHU216HW,2013-12-22 21:13:00,
2013-12-22 15:14:00,24.5,21.7,29.78,NNE,22,4.6,17.4,89,0.00,,,0.00,WUHU216HW,2013-12-22 21:14:00,
2013-12-22 15:15:00,24.5,21.7,29.78,NNE,22,4.6,17.4,89,0.00,,,0.00,WUHU216HW,2013-12-22 21:15:00,
2013-12-22 15:17:00,24.5,21.7,29.79,NNE,22,4.6,17.4,89,0.00,,,0.00,WUHU216HW,2013-12-22 21:17:00,
2013-12-22 15:18:00,24.3,21.5,29.79,NNE,22,4.6,17.4,89,0.00,,,0.00,WUHU216HW,2013-12-22 21:18:00,
2013-12-22 15:19:00,24.1,21.3,29.79,NNE,22,4.6,17.4,89,0.00,,,0.00,WUHU216HW,2013-12-22 21:19:00,
2013-12-22 15:20:00,24.1,21.3,29.79,NNE,22,4.6,17.4,89,0.00,,,0.00,WUHU216HW,2013-12-22 21:20:00,
2013-12-22 15:23:00,24.1,21.3,29.79,NNE,22,4.6,17.4,89,0.00,,,0.00,WUHU216HW,2013-12-22 21:23:00,
2013-12-22 15:24:00,24.1,21.3,29.79,NNE,22,4.6,17.4,89,0.00,,,0.00,WUHU216HW,2013-12-22 21:24:00,
2013-12-22 15:26:00,23.9,21.2,29.79,NNE,22,4.6,17.4,89,0.00,,,0.00,WUHU216HW,2013-12-22 21:26:00,
2013-12-22 15:28:00,23.9,21.2,29.79,NNE,22,4.6,17.4,89,0.00,,,0.00,WUHU216HW,2013-12-22 21:28:00,
2013-12-22 15:29:00,23.9,21.2,29.79,NNE,23,4.7,17.4,89,0.00,,,0.00,WUHU216HW,2013-12-22 21:29:00,
2013-12-22 15:31:00,23.9,21.2,29.79,NNE,22,4.6,17.0,89,0.00,,,0.00,WUHU216HW,2013-12-22 21:31:00,
2013-12-22 15:33:00,23.9,21.2,29.79,NNE,22,4.5,15.7,89,0.00,,,0.00,WUHU216HW,2013-12-22 21:33:00,
2013-12-22 15:34:00,23.9,21.2,29.79,NNE,22,4.5,15.7,89,0.00,,,0.00,WUHU216HW,2013-12-22 21:34:00,
2013-12-22 15:36:00,23.8,21.0,29.68,NNE,22,4.5,15.7,89,0.00,,,0.00,WUHU216HW,2013-12-22 21:36:00,
2013-12-22 15:38:00,23.8,21.0,29.68,NNE,23,5.1,15.7,89,0.00,,,0.00,WUHU216HW,2013-12-22 21:38:00,
2013-12-22 15:39:00,23.8,21.0,29.80,NNE,22,4.6,15.7,89,0.00,,,0.00,WUHU216HW,2013-12-22 21:39:00,
2013-12-22 15:40:00,23.8,21.0,29.80,NNE,23,8.5,15.7,89,0.00,,,0.00,WUHU216HW,2013-12-22 21:40:00,
2013-12-22 15:41:00,23.6,20.8,29.80,NNE,22,4.6,15.7,89,0.00,,,0.00,WUHU216HW,2013-12-22 21:41:00,
2013-12-22 15:44:00,23.8,21.0,29.81,NNE,22,4.6,15.0,89,0.00,,,0.00,WUHU216HW,2013-12-22 21:44:00,
2013-12-22 15:45:00,23.6,20.8,29.81,NNE,22,4.6,15.0,89,0.00,,,0.00,WUHU216HW,2013-12-22 21:45:00,
2013-12-22 15:46:00,23.6,20.8,29.81,NNE,22,4.6,15.0,89,0.00,,,0.00,WUHU216HW,2013-12-22 21:46:00,
2013-12-22 15:47:00,23.6,20.8,29.81,NNE,22,4.6,15.0,89,0.00,,,0.00,WUHU216HW,2013-12-22 21:47:00,
2013-12-22 15:49:00,23.6,20.8,29.81,NNE,22,4.6,15.0,89,0.00,,,0.00,WUHU216HW,2013-12-22 21:49:00,
2013-12-22 15:50:00,23.6,20.8,29.81,NNE,22,4.6,15.0,89,0.00,,,0.00,WUHU216HW,2013-12-22 21:50:00,
2013-12-22 15:52:00,23.6,20.8,29.81,NNE,22,4.7,15.0,89,0.00,,,0.00,WUHU216HW,2013-12-22 21:52:00,
2013-12-22 15:53:00,23.6,20.8,29.81,NNE,23,4.7,15.0,89,0.00,,,0.00,WUHU216HW,2013-12-22 21:53:00,
2013-12-22 15:59:00,23.4,20.6,29.81,NNE,23,6.3,17.4,89,0.00,,,0.00,WUHU216HW,2013-12-22 21:59:00,
2013-12-22 16:00:00,23.4,20.6,29.81,NNE,23,5.4,17.4,89,0.00,,,0.00,WUHU216HW,2013-12-22 22:00:00,
2013-12-22 16:01:00,23.2,20.4,29.81,NNE,23,7.6,17.4,89,0.00,,,0.00,WUHU216HW,2013-12-22 22:01:00,
2013-12-22 16:04:00,23.0,20.3,29.82,NNE,22,4.6,17.4,89,0.00,,,0.00,WUHU216HW,2013-12-22 22:04:00,
2013-12-22 16:05:00,23.0,20.5,29.82,NNE,23,6.3,17.4,90,0.00,,,0.00,WUHU216HW,2013-12-22 22:05:00,
2013-12-22 16:06:00,23.0,20.5,29.82,NNE,23,4.9,17.4,90,0.00,,,0.00,WUHU216HW,2013-12-22 22:06:00,
2013-12-22 16:09:00,22.9,20.3,29.82,NNE,23,6.9,17.4,90,0.00,,,0.00,WUHU216HW,2013-12-22 22:09:00,
2013-12-22 16:10:00,22.9,20.3,29.82,NNE,23,6.9,17.4,90,0.00,,,0.00,WUHU216HW,2013-12-22 22:10:00,
2013-12-22 16:11:00,23.0,20.5,29.82,NNE,23,4.9,17.4,90,0.00,,,0.00,WUHU216HW,2013-12-22 22:11:00,
2013-12-22 16:12:00,22.9,20.3,29.82,NNE,23,4.7,17.4,90,0.00,,,0.00,WUHU216HW,2013-12-22 22:12:00,
2013-12-22 16:14:00,22.9,20.3,29.82,NNE,22,4.6,17.4,90,0.00,,,0.00,WUHU216HW,2013-12-22 22:14:00,
2013-12-22 16:15:00,22.9,20.3,29.82,NNE,23,4.9,17.4,90,0.00,,,0.00,WUHU216HW,2013-12-22 22:15:00,
2013-12-22 16:16:00,22.9,20.3,29.83,NNE,22,4.5,17.4,90,0.00,,,0.00,WUHU216HW,2013-12-22 22:16:00,
2013-12-22 16:17:00,22.9,20.3,29.83,NNE,23,4.5,17.4,90,0.00,,,0.00,WUHU216HW,2013-12-22 22:17:00,
2013-12-22 16:18:00,22.9,20.3,29.83,NNE,23,6.5,17.4,90,0.00,,,0.00,WUHU216HW,2013-12-22 22:18:00,
2013-12-22 16:19:00,22.9,20.3,29.83,NNE,23,5.1,17.4,90,0.00,,,0.00,WUHU216HW,2013-12-22 22:19:00,
2013-12-22 16:20:00,22.9,20.3,29.83,NNE,23,5.1,17.4,90,0.00,,,0.00,WUHU216HW,2013-12-22 22:20:00,
2013-12-22 16:22:00,22.9,20.3,29.83,NNE,23,8.7,17.4,90,0.00,,,0.00,WUHU216HW,2013-12-22 22:22:00,
2013-12-22 16:23:00,22.9,20.3,29.83,NNE,22,4.6,17.4,90,0.00,,,0.00,WUHU216HW,2013-12-22 22:23:00,
2013-12-22 16:24:00,22.9,20.3,29.83,NNE,22,4.6,17.4,90,0.00,,,0.00,WUHU216HW,2013-12-22 22:24:00,
2013-12-22 16:25:00,22.7,20.2,29.83,NNE,22,4.6,17.4,90,0.00,,,0.00,WUHU216HW,2013-12-22 22:25:00,
2013-12-22 16:26:00,22.7,20.2,29.83,NNE,22,4.5,17.4,90,0.00,,,0.00,WUHU216HW,2013-12-22 22:26:00,
2013-12-22 16:27:00,22.7,20.2,29.83,NNE,22,4.5,17.4,90,0.00,,,0.00,WUHU216HW,2013-12-22 22:27:00,
2013-12-22 16:29:00,22.7,20.2,29.83,NNE,23,5.4,17.4,90,0.00,,,0.00,WUHU216HW,2013-12-22 22:29:00,
2013-12-22 16:30:00,22.7,20.2,29.83,NNE,23,4.5,17.0,90,0.00,,,0.00,WUHU216HW,2013-12-22 22:30:00,
2013-12-22 16:31:00,22.7,20.2,29.83,NNE,23,6.3,17.0,90,0.00,,,0.00,WUHU216HW,2013-12-22 22:31:00,
2013-12-22 16:32:00,22.7,20.2,29.83,NNE,22,4.5,17.0,90,0.00,,,0.00,WUHU216HW,2013-12-22 22:32:00,
2013-12-22 16:34:00,22.7,20.2,29.83,NNE,22,4.5,15.7,90,0.00,,,0.00,WUHU216HW,2013-12-22 22:34:00,
2013-12-22 16:35:00,22.7,20.2,29.83,NNE,23,4.7,15.7,90,0.00,,,0.00,WUHU216HW,2013-12-22 22:35:00,
2013-12-22 16:36:00,22.7,20.2,29.83,NNE,23,5.4,15.7,90,0.00,,,0.00,WUHU216HW,2013-12-22 22:36:00,
2013-12-22 16:37:00,22.7,20.2,29.83,NNE,22,4.5,15.7,90,0.00,,,0.00,WUHU216HW,2013-12-22 22:37:00,
2013-12-22 16:39:00,22.7,20.2,29.83,NNE,22,4.6,15.7,90,0.00,,,0.00,WUHU216HW,2013-12-22 22:39:00,
2013-12-22 16:41:00,22.7,20.2,29.83,NNE,22,4.6,15.7,90,0.00,,,0.00,WUHU216HW,2013-12-22 22:41:00,
2013-12-22 16:43:00,22.7,20.2,29.83,NNE,22,4.6,15.0,90,0.00,,,0.00,WUHU216HW,2013-12-22 22:43:00,
2013-12-22 16:44:00,22.7,20.2,29.83,NNE,23,5.6,15.0,90,0.00,,,0.00,WUHU216HW,2013-12-22 22:44:00,
2013-12-22 16:46:00,22.7,20.2,29.84,NNE,22,4.6,15.0,90,0.00,,,0.00,WUHU216HW,2013-12-22 22:46:00,
2013-12-22 16:47:00,22.7,20.2,29.84,NNE,23,6.3,15.0,90,0.00,,,0.00,WUHU216HW,2013-12-22 22:47:00,
2013-12-22 16:48:00,22.7,20.2,29.84,NNE,22,4.6,15.0,90,0.00,,,0.00,WUHU216HW,2013-12-22 22:48:00,
2013-12-22 16:49:00,22.7,20.2,29.84,NNE,23,4.9,15.0,90,0.00,,,0.00,WUHU216HW,2013-12-22 22:49:00,
2013-12-22 16:50:00,22.7,20.2,29.84,NNE,23,4.9,15.0,90,0.00,,,0.00,WUHU216HW,2013-12-22 22:50:00,
2013-12-22 16:51:00,22.7,20.2,29.84,NNE,22,4.6,15.0,90,0.00,,,0.00,WUHU216HW,2013-12-22 22:51:00,
2013-12-22 16:52:00,22.7,20.2,29.84,NNE,22,4.6,15.0,90,0.00,,,0.00,WUHU216HW,2013-12-22 22:52:00,
2013-12-22 16:53:00,22.7,20.2,29.84,NNE,23,5.4,15.0,90,0.00,,,0.00,WUHU216HW,2013-12-22 22:53:00,
2013-12-22 16:58:00,22.7,20.2,29.84,NNE,22,4.6,17.4,90,0.00,,,0.00,WUHU216HW,2013-12-22 22:58:00,
2013-12-22 16:59:00,22.7,20.2,29.84,NNE,23,4.7,17.4,90,0.00,,,0.00,WUHU216HW,2013-12-22 22:59:00,
2013-12-22 17:00:00,22.5,20.0,29.84,NNE,22,4.6,17.4,90,0.00,,,0.00,WUHU216HW,2013-12-22 23:00:00,
2013-12-22 17:03:00,22.5,20.0,29.84,NNE,23,6.5,17.4,90,0.00,,,0.00,WUHU216HW,2013-12-22 23:03:00,
2013-12-22 17:04:00,22.5,20.0,29.84,NNE,22,4.5,17.4,90,0.00,,,0.00,WUHU216HW,2013-12-22 23:04:00,
2013-12-22 17:05:00,22.7,20.2,29.84,NNE,22,4.5,17.4,90,0.00,,,0.00,WUHU216HW,2013-12-22 23:05:00,
2013-12-22 17:08:00,22.5,20.0,29.84,NNE,22,4.6,17.4,90,0.00,,,0.00,WUHU216HW,2013-12-22 23:08:00,
2013-12-22 17:09:00,22.5,20.0,29.84,NNE,23,8.3,17.4,90,0.00,,,0.00,WUHU216HW,2013-12-22 23:09:00,
2013-12-22 17:10:00,22.5,20.0,29.84,NNE,23,4.7,17.4,90,0.00,,,0.00,WUHU216HW,2013-12-22 23:10:00,
2013-12-22 17:13:00,22.5,20.0,29.84,NNE,22,4.6,17.4,90,0.00,,,0.00,WUHU216HW,2013-12-22 23:13:00,
2013-12-22 17:14:00,22.3,19.8,29.84,NNE,22,4.6,17.4,90,0.00,,,0.00,WUHU216HW,2013-12-22 23:14:00,
2013-12-22 17:15:00,22.3,19.8,29.84,NNE,22,4.5,17.4,90,0.00,,,0.00,WUHU216HW,2013-12-22 23:15:00,
2013-12-22 17:19:00,22.3,19.8,29.85,NNE,22,4.5,17.4,90,0.00,,,0.00,WUHU216HW,2013-12-22 23:19:00,
2013-12-22 17:20:00,22.3,19.8,29.85,NNE,23,5.4,17.4,90,0.00,,,0.00,WUHU216HW,2013-12-22 23:20:00,
2013-12-22 17:24:00,22.3,19.8,29.85,NNE,23,4.7,17.4,90,0.00,,,0.00,WUHU216HW,2013-12-22 23:24:00,
2013-12-22 17:25:00,22.3,19.8,29.85,NNE,22,4.5,17.4,90,0.00,,,0.00,WUHU216HW,2013-12-22 23:25:00,
2013-12-22 17:26:00,22.3,19.8,29.85,NNE,23,4.7,17.4,90,0.00,,,0.00,WUHU216HW,2013-12-22 23:26:00,
2013-12-22 17:29:00,22.3,19.8,29.85,NNE,23,5.4,17.4,90,0.00,,,0.00,WUHU216HW,2013-12-22 23:29:00,
2013-12-22 17:30:00,22.3,19.8,29.85,NNE,23,7.2,17.0,90,0.00,,,0.00,WUHU216HW,2013-12-22 23:30:00,
2013-12-22 17:31:00,22.3,19.8,29.85,NNE,23,7.6,17.0,90,0.00,,,0.00,WUHU216HW,2013-12-22 23:31:00,
2013-12-22 17:34:00,22.1,19.6,29.85,NNE,23,4.9,15.7,90,0.00,,,0.00,WUHU216HW,2013-12-22 23:34:00,
2013-12-22 17:35:00,22.1,19.6,29.85,NNE,23,7.2,15.7,90,0.00,,,0.00,WUHU216HW,2013-12-22 23:35:00,
2013-12-22 17:36:00,22.1,19.6,29.85,NNE,22,4.5,15.7,90,0.00,,,0.00,WUHU216HW,2013-12-22 23:36:00,
2013-12-22 17:37:00,22.1,19.6,29.85,NNE,23,4.7,15.7,90,0.00,,,0.00,WUHU216HW,2013-12-22 23:37:00,
2013-12-22 17:39:00,22.1,19.6,29.85,NNE,22,4.5,15.7,90,0.00,,,0.00,WUHU216HW,2013-12-22 23:39:00,
2013-12-22 17:40:00,22.1,19.6,29.85,NNE,22,4.6,15.7,90,0.00,,,0.00,WUHU216HW,2013-12-22 23:40:00,
2013-12-22 17:41:00,22.1,19.6,29.85,NNE,22,4.6,15.7,90,0.00,,,0.00,WUHU216HW,2013-12-22 23:41:00,
2013-12-22 17:42:00,22.0,19.4,29.85,NNE,23,5.1,15.7,90,0.00,,,0.00,WUHU216HW,2013-12-22 23:42:00,
2013-12-22 17:44:00,22.1,19.6,29.85,NNE,22,4.6,15.0,90,0.00,,,0.00,WUHU216HW,2013-12-22 23:44:00,
2013-12-22 17:45:00,22.0,19.4,29.85,NNE,23,7.8,15.0,90,0.00,,,0.00,WUHU216HW,2013-12-22 23:45:00,
2013-12-22 17:47:00,22.0,19.4,29.85,NNE,22,4.6,15.0,90,0.00,,,0.00,WUHU216HW,2013-12-22 23:47:00,
2013-12-22 17:49:00,22.1,19.6,29.85,NNE,23,4.5,15.0,90,0.00,,,0.00,WUHU216HW,2013-12-22 23:49:00,
2013-12-22 17:50:00,22.0,19.4,29.85,NNE,22,4.6,15.0,90,0.00,,,0.00,WUHU216HW,2013-12-22 23:50:00,
2013-12-22 17:52:00,22.0,19.4,29.85,NNE,23,5.4,15.0,90,0.00,,,0.00,WUHU216HW,2013-12-22 23:52:00,
2013-12-22 17:58:00,22.0,19.4,29.85,NNE,23,7.4,17.4,90,0.00,,,0.00,WUHU216HW,2013-12-22 23:58:00,
2013-12-22 18:00:00,22.0,19.4,29.85,NNE,22,4.6,17.4,90,0.00,,,0.00,WUHU216HW,2013-12-23 00:00:00,
2013-12-22 18:01:00,22.0,19.4,29.85,NNE,23,5.1,17.4,90,0.00,,,0.00,WUHU216HW,2013-12-23 00:01:00,
2013-12-22 18:02:00,22.0,19.4,29.85,NNE,22,4.6,17.4,90,0.00,,,0.00,WUHU216HW,2013-12-23 00:02:00,
2013-12-22 18:03:00,22.0,19.4,29.85,NNE,22,4.6,17.4,90,0.00,,,0.00,WUHU216HW,2013-12-23 00:03:00,
2013-12-22 18:05:00,22.0,19.4,29.85,NNE,22,4.6,17.4,90,0.00,,,0.00,WUHU216HW,2013-12-23 00:05:00,
2013-12-22 18:06:00,22.0,19.4,29.85,NNE,23,6.7,17.4,90,0.00,,,0.00,WUHU216HW,2013-12-23 00:06:00,
2013-12-22 18:07:00,22.0,19.4,29.85,NNE,23,4.7,17.4,90,0.00,,,0.00,WUHU216HW,2013-12-23 00:07:00,
2013-12-22 18:08:00,21.8,19.3,29.86,NNE,23,6.7,17.4,90,0.00,,,0.00,WUHU216HW,2013-12-23 00:08:00,
2013-12-22 18:10:00,21.8,19.3,29.86,NNE,23,5.1,17.4,90,0.00,,,0.00,WUHU216HW,2013-12-23 00:10:00,
2013-12-22 18:12:00,21.8,19.3,29.86,NNE,23,6.3,17.4,90,0.00,,,0.00,WUHU216HW,2013-12-23 00:12:00,
2013-12-22 18:13:00,21.8,19.3,29.86,NNE,23,4.7,17.4,90,0.00,,,0.00,WUHU216HW,2013-12-23 00:13:00,
2013-12-22 18:14:00,21.8,19.3,29.86,NNE,23,4.7,17.4,90,0.00,,,0.00,WUHU216HW,2013-12-23 00:14:00,
2013-12-22 18:15:00,21.8,19.3,29.86,NNE,22,4.6,17.4,90,0.00,,,0.00,WUHU216HW,2013-12-23 00:15:00,
2013-12-22 18:17:00,21.6,19.1,29.85,NNE,23,5.4,17.4,90,0.00,,,0.00,WUHU216HW,2013-12-23 00:17:00,
2013-12-22 18:18:00,21.6,19.1,29.86,NNE,23,4.5,17.4,90,0.00,,,0.00,WUHU216HW,2013-12-23 00:18:00,
2013-12-22 18:19:00,21.6,19.1,29.86,NNE,22,4.5,17.4,90,0.00,,,0.00,WUHU216HW,2013-12-23 00:19:00,
2013-12-22 18:20:00,21.6,19.1,29.86,NNE,23,4.9,17.4,90,0.00,,,0.00,WUHU216HW,2013-12-23 00:20:00,
2013-12-22 18:22:00,21.6,19.1,29.86,NNE,22,4.5,17.4,90,0.00,,,0.00,WUHU216HW,2013-12-23 00:22:00,
2013-12-22 18:23:00,21.6,19.1,29.86,NNE,22,4.6,17.4,90,0.00,,,0.00,WUHU216HW,2013-12-23 00:23:00,
2013-12-22 18:24:00,21.6,19.1,29.86,NNE,22,4.6,17.4,90,0.00,,,0.00,WUHU216HW,2013-12-23 00:24:00,
2013-12-22 18:26:00,21.6,19.1,29.86,NNE,22,4.5,17.4,90,0.00,,,0.00,WUHU216HW,2013-12-23 00:26:00,
2013-12-22 18:27:00,21.6,19.1,29.86,NNE,22,4.6,17.4,90,0.00,,,0.00,WUHU216HW,2013-12-23 00:27:00,
2013-12-22 18:28:00,21.6,19.1,29.86,NNE,22,4.6,17.4,90,0.00,,,0.00,WUHU216HW,2013-12-23 00:28:00,
2013-12-22 18:29:00,21.6,19.1,29.86,NNE,22,4.5,17.4,90,0.00,,,0.00,WUHU216HW,2013-12-23 00:29:00,
2013-12-22 18:31:00,21.6,19.1,29.86,NNE,22,4.5,17.0,90,0.00,,,0.00,WUHU216HW,2013-12-23 00:31:00,
2013-12-22 18:32:00,21.6,19.1,29.86,NNE,22,4.5,17.0,90,0.00,,,0.00,WUHU216HW,2013-12-23 00:32:00,
2013-12-22 18:33:00,21.6,19.1,29.86,NNE,22,4.5,17.0,90,0.00,,,0.00,WUHU216HW,2013-12-23 00:33:00,
2013-12-22 18:34:00,21.6,19.1,29.86,NNE,22,4.5,15.7,90,0.00,,,0.00,WUHU216HW,2013-12-23 00:34:00,
2013-12-22 18:35:00,21.6,19.1,29.86,NNE,23,6.9,15.7,90,0.00,,,0.00,WUHU216HW,2013-12-23 00:35:00,
2013-12-22 18:36:00,21.6,19.1,29.86,NNE,22,4.5,15.7,90,0.00,,,0.00,WUHU216HW,2013-12-23 00:36:00,
2013-12-22 18:37:00,21.6,19.1,29.86,NNE,23,5.4,15.7,90,0.00,,,0.00,WUHU216HW,2013-12-23 00:37:00,
2013-12-22 18:38:00,21.6,19.1,29.86,NNE,22,4.5,15.7,90,0.00,,,0.00,WUHU216HW,2013-12-23 00:38:00,
2013-12-22 18:40:00,21.6,19.1,29.86,NNE,22,4.5,15.7,90,0.00,,,0.00,WUHU216HW,2013-12-23 00:40:00,
2013-12-22 18:42:00,21.6,19.1,29.87,NNE,22,4.6,15.7,90,0.00,,,0.00,WUHU216HW,2013-12-23 00:42:00,
2013-12-22 18:43:00,21.6,19.1,29.87,NNE,22,4.6,15.0,90,0.00,,,0.00,WUHU216HW,2013-12-23 00:43:00,
2013-12-22 18:44:00,21.6,19.1,29.87,NNE,22,4.6,15.0,90,0.00,,,0.00,WUHU216HW,2013-12-23 00:44:00,
2013-12-22 18:45:00,21.6,19.1,29.87,NNE,22,4.6,15.0,90,0.00,,,0.00,WUHU216HW,2013-12-23 00:45:00,
2013-12-22 18:47:00,21.6,19.1,29.87,NNE,23,4.7,15.0,90,0.00,,,0.00,WUHU216HW,2013-12-23 00:47:00,
2013-12-22 18:48:00,21.6,19.1,29.87,NNE,23,6.0,15.0,90,0.00,,,0.00,WUHU216HW,2013-12-23 00:48:00,
2013-12-22 18:49:00,21.6,19.1,29.87,NNE,22,4.5,15.0,90,0.00,,,0.00,WUHU216HW,2013-12-23 00:49:00,
2013-12-22 18:50:00,21.6,19.1,29.87,NNE,22,4.5,15.0,90,0.00,,,0.00,WUHU216HW,2013-12-23 00:50:00,
2013-12-22 18:52:00,21.6,19.1,29.87,NNE,22,4.6,15.0,90,0.00,,,0.00,WUHU216HW,2013-12-23 00:52:00,
2013-12-22 18:53:00,21.6,19.1,29.87,NNE,22,4.6,15.0,90,0.00,,,0.00,WUHU216HW,2013-12-23 00:53:00,
2013-12-22 18:58:00,21.6,19.1,29.87,NNE,23,4.9,17.4,90,0.00,,,0.00,WUHU216HW,2013-12-23 00:58:00,
2013-12-22 19:00:00,21.4,18.9,29.88,NNE,22,4.6,17.4,90,0.00,,,0.00,WUHU216HW,2013-12-23 01:00:00,
2013-12-22 19:01:00,21.4,18.9,29.87,NNE,22,4.5,17.4,90,0.00,,,0.00,WUHU216HW,2013-12-23 01:01:00,
2013-12-22 19:03:00,21.4,18.9,29.87,NNE,23,4.7,17.4,90,0.00,,,0.00,WUHU216HW,2013-12-23 01:03:00,
2013-12-22 19:05:00,21.4,18.9,29.88,NNE,22,4.6,17.4,90,0.00,,,0.00,WUHU216HW,2013-12-23 01:05:00,
2013-12-22 19:06:00,21.4,18.9,29.87,NNE,22,4.6,17.4,90,0.00,,,0.00,WUHU216HW,2013-12-23 01:06:00,
2013-12-22 19:08:00,21.4,18.9,29.87,NNE,22,4.6,17.4,90,0.00,,,0.00,WUHU216HW,2013-12-23 01:08:00,
2013-12-22 19:10:00,21.4,18.9,29.88,NNE,23,6.9,17.4,90,0.00,,,0.00,WUHU216HW,2013-12-23 01:10:00,
2013-12-22 19:11:00,21.4,18.9,29.88,NNE,22,4.6,17.4,90,0.00,,,0.00,WUHU216HW,2013-12-23 01:11:00,
2013-12-22 19:13:00,21.4,18.9,29.88,NNE,23,4.9,17.4,90,0.00,,,0.00,WUHU216HW,2013-12-23 01:13:00,
2013-12-22 19:15:00,21.4,18.9,29.89,NNE,22,4.6,17.4,90,0.00,,,0.00,WUHU216HW,2013-12-23 01:15:00,
2013-12-22 19:16:00,21.4,18.9,29.89,NNE,23,5.1,17.4,90,0.00,,,0.00,WUHU216HW,2013-12-23 01:16:00,
2013-12-22 19:18:00,21.4,18.9,29.89,NNE,22,4.5,17.4,90,0.00,,,0.00,WUHU216HW,2013-12-23 01:18:00,
2013-12-22 19:19:00,21.4,18.9,29.89,NNE,22,4.5,17.4,90,0.00,,,0.00,WUHU216HW,2013-12-23 01:19:00,
2013-12-22 19:21:00,21.4,18.9,29.89,NNE,23,4.5,17.4,90,0.00,,,0.00,WUHU216HW,2013-12-23 01:21:00,
2013-12-22 19:22:00,21.4,18.9,29.88,NNE,22,4.5,17.4,90,0.00,,,0.00,WUHU216HW,2013-12-23 01:22:00,
2013-12-22 19:23:00,21.4,18.9,29.89,NNE,22,4.5,17.4,90,0.00,,,0.00,WUHU216HW,2013-12-23 01:23:00,
2013-12-22 19:24:00,21.4,18.9,29.89,NNE,22,4.5,17.4,90,0.00,,,0.00,WUHU216HW,2013-12-23 01:24:00,
2013-12-22 19:26:00,21.4,18.9,29.89,NNE,23,4.5,17.4,90,0.00,,,0.00,WUHU216HW,2013-12-23 01:26:00,
2013-12-22 19:27:00,21.4,18.9,29.89,NNE,23,6.5,17.4,90,0.00,,,0.00,WUHU216HW,2013-12-23 01:27:00,
2013-12-22 19:28:00,21.4,18.9,29.89,NNE,23,4.7,17.4,90,0.00,,,0.00,WUHU216HW,2013-12-23 01:28:00,
2013-12-22 19:29:00,21.4,18.9,29.89,NNE,23,5.1,17.4,90,0.00,,,0.00,WUHU216HW,2013-12-23 01:29:00,
2013-12-22 19:30:00,21.4,18.9,29.89,NNE,23,4.7,17.0,90,0.00,,,0.00,WUHU216HW,2013-12-23 01:30:00,
2013-12-22 19:32:00,21.4,18.9,29.89,NNE,23,5.4,17.0,90,0.00,,,0.00,WUHU216HW,2013-12-23 01:32:00,
2013-12-22 19:33:00,21.4,18.9,29.89,NNE,23,4.7,17.0,90,0.00,,,0.00,WUHU216HW,2013-12-23 01:33:00,
2013-12-22 19:34:00,21.4,18.9,29.89,NNE,22,4.5,15.7,90,0.00,,,0.00,WUHU216HW,2013-12-23 01:34:00,
2013-12-22 19:35:00,21.4,18.9,29.89,NNE,22,4.5,15.7,90,0.00,,,0.00,WUHU216HW,2013-12-23 01:35:00,
2013-12-22 19:38:00,21.4,18.9,29.89,NNE,22,4.5,15.7,90,0.00,,,0.00,WUHU216HW,2013-12-23 01:38:00,
2013-12-22 19:39:00,21.4,18.9,29.89,NNE,22,4.5,15.7,90,0.00,,,0.00,WUHU216HW,2013-12-23 01:39:00,
2013-12-22 19:40:00,21.4,18.9,29.89,NNE,22,4.5,15.7,90,0.00,,,0.00,WUHU216HW,2013-12-23 01:40:00,
2013-12-22 19:43:00,21.4,18.9,29.89,NNE,22,4.6,15.0,90,0.00,,,0.00,WUHU216HW,2013-12-23 01:43:00,
2013-12-22 19:44:00,21.4,18.9,29.89,NNE,22,4.6,15.0,90,0.00,,,0.00,WUHU216HW,2013-12-23 01:44:00,
2013-12-22 19:45:00,21.4,18.9,29.89,NNE,22,4.6,15.0,90,0.00,,,0.00,WUHU216HW,2013-12-23 01:45:00,
2013-12-22 19:48:00,21.4,18.9,29.89,NNE,22,4.6,15.0,90,0.00,,,0.00,WUHU216HW,2013-12-23 01:48:00,
2013-12-22 19:49:00,21.4,18.9,29.89,NNE,22,4.5,15.0,90,0.00,,,0.00,WUHU216HW,2013-12-23 01:49:00,
2013-12-22 19:50:00,21.4,18.9,29.89,NNE,23,5.6,15.0,90,0.00,,,0.00,WUHU216HW,2013-12-23 01:50:00,
2013-12-22 19:53:00,21.4,18.9,29.89,NNE,22,4.6,15.0,90,0.00,,,0.00,WUHU216HW,2013-12-23 01:53:00,
2013-12-22 19:58:00,21.4,18.6,29.89,NNE,22,4.5,17.4,89,0.00,,,0.00,WUHU216HW,2013-12-23 01:58:00,
2013-12-22 19:59:00,21.4,18.9,29.89,NNE,22,4.5,17.4,90,0.00,,,0.00,WUHU216HW,2013-12-23 01:59:00,
2013-12-22 20:02:00,21.4,18.9,29.89,NNE,22,4.5,17.4,90,0.00,,,0.00,WUHU216HW,2013-12-23 02:02:00,
2013-12-22 20:03:00,21.4,18.9,29.89,NNE,22,4.5,17.4,90,0.00,,,0.00,WUHU216HW,2013-12-23 02:03:00,
2013-12-22 20:04:00,21.4,18.6,29.90,NNE,22,4.5,17.4,89,0.00,,,0.00,WUHU216HW,2013-12-23 02:04:00,
2013-12-22 20:07:00,21.4,18.6,29.90,NNE,22,4.5,17.4,89,0.00,,,0.00,WUHU216HW,2013-12-23 02:07:00,
2013-12-22 20:08:00,21.4,18.9,29.90,NNE,22,4.5,17.4,90,0.00,,,0.00,WUHU216HW,2013-12-23 02:08:00,
2013-12-22 20:09:00,21.4,18.6,29.90,NNE,22,4.6,17.4,89,0.00,,,0.00,WUHU216HW,2013-12-23 02:09:00,
2013-12-22 20:10:00,21.4,18.6,29.90,NNE,22,4.6,17.4,89,0.00,,,0.00,WUHU216HW,2013-12-23 02:10:00,
2013-12-22 20:12:00,21.4,18.6,29.89,NNE,22,4.5,17.4,89,0.00,,,0.00,WUHU216HW,2013-12-23 02:12:00,
2013-12-22 20:13:00,21.4,18.6,29.89,NNE,22,4.5,17.4,89,0.00,,,0.00,WUHU216HW,2013-12-23 02:13:00,
2013-12-22 20:14:00,21.4,18.6,29.89,NNE,22,4.5,17.4,89,0.00,,,0.00,WUHU216HW,2013-12-23 02:14:00,
2013-12-22 20:15:00,21.2,18.5,29.90,NNE,22,4.5,17.4,89,0.00,,,0.00,WUHU216HW,2013-12-23 02:15:00,
2013-12-22 20:17:00,21.4,18.9,29.90,NNE,22,4.5,17.4,90,0.00,,,0.00,WUHU216HW,2013-12-23 02:17:00,
2013-12-22 20:19:00,21.4,18.6,29.90,NNE,22,4.5,17.4,89,0.00,,,0.00,WUHU216HW,2013-12-23 02:19:00,
2013-12-22 20:20:00,21.2,18.7,29.90,NNE,22,4.5,17.4,90,0.00,,,0.00,WUHU216HW,2013-12-23 02:20:00,
2013-12-22 20:23:00,21.4,18.9,29.90,NNE,22,4.5,17.4,90,0.00,,,0.00,WUHU216HW,2013-12-23 02:23:00,
2013-12-22 20:24:00,21.2,18.7,29.90,NNE,22,4.5,17.4,90,0.00,,,0.00,WUHU216HW,2013-12-23 02:24:00,
2013-12-22 20:25:00,21.4,18.9,29.90,NNE,22,4.5,17.4,90,0.00,,,0.00,WUHU216HW,2013-12-23 02:25:00,
2013-12-22 20:28:00,21.4,18.9,29.90,NNE,22,4.5,17.4,90,0.00,,,0.00,WUHU216HW,2013-12-23 02:28:00,
2013-12-22 20:29:00,21.4,18.9,29.90,NNE,22,4.5,17.4,90,0.00,,,0.00,WUHU216HW,2013-12-23 02:29:00,
2013-12-22 20:30:00,21.4,18.9,29.90,NNE,22,4.5,17.0,90,0.00,,,0.00,WUHU216HW,2013-12-23 02:30:00,
2013-12-22 20:33:00,21.4,18.9,29.90,NNE,22,4.5,15.7,90,0.00,,,0.00,WUHU216HW,2013-12-23 02:33:00,
2013-12-22 20:34:00,21.4,18.9,29.90,NNE,22,4.5,15.7,90,0.00,,,0.00,WUHU216HW,2013-12-23 02:34:00,
2013-12-22 20:35:00,21.4,18.9,29.90,NNE,22,4.5,15.7,90,0.00,,,0.00,WUHU216HW,2013-12-23 02:35:00,
2013-12-22 20:36:00,21.4,18.9,29.90,NNE,22,4.5,15.7,90,0.00,,,0.00,WUHU216HW,2013-12-23 02:36:00,
2013-12-22 20:38:00,21.2,18.7,29.90,NNE,22,4.5,15.7,90,0.00,,,0.00,WUHU216HW,2013-12-23 02:38:00,
2013-12-22 20:39:00,21.4,18.9,29.90,NNE,22,4.5,15.7,90,0.00,,,0.00,WUHU216HW,2013-12-23 02:39:00,
2013-12-22 20:40:00,21.2,18.7,29.90,NNE,22,4.5,15.7,90,0.00,,,0.00,WUHU216HW,2013-12-23 02:40:00,
2013-12-22 20:41:00,21.2,18.7,29.90,NNE,22,4.5,15.7,90,0.00,,,0.00,WUHU216HW,2013-12-23 02:41:00,
2013-12-22 20:44:00,21.2,18.7,29.90,NNE,22,4.5,15.0,90,0.00,,,0.00,WUHU216HW,2013-12-23 02:44:00,
2013-12-22 20:46:00,21.2,18.7,29.90,NNE,22,4.5,15.0,90,0.00,,,0.00,WUHU216HW,2013-12-23 02:46:00,
2013-12-22 20:49:00,21.2,18.7,29.90,NNE,22,4.5,15.0,90,0.00,,,0.00,WUHU216HW,2013-12-23 02:49:00,
2013-12-22 20:51:00,21.2,18.7,29.90,NNE,22,4.5,15.0,90,0.00,,,0.00,WUHU216HW,2013-12-23 02:51:00,
2013-12-22 20:58:00,21.2,18.7,29.91,NNE,22,4.5,17.4,90,0.00,,,0.00,WUHU216HW,2013-12-23 02:58:00,
2013-12-22 20:59:00,21.2,18.7,29.91,NNE,22,4.5,17.4,90,0.00,,,0.00,WUHU216HW,2013-12-23 02:59:00,
2013-12-22 21:01:00,21.2,18.7,29.91,NNE,22,4.5,17.4,90,0.00,,,0.00,WUHU216HW,2013-12-23 03:01:00,
2013-12-22 21:03:00,21.2,18.7,29.90,NNE,22,4.5,17.4,90,0.00,,,0.00,WUHU216HW,2013-12-23 03:03:00,
2013-12-22 21:04:00,21.2,18.7,29.91,NNE,22,4.5,17.4,90,0.00,,,0.00,WUHU216HW,2013-12-23 03:04:00,
2013-12-22 21:05:00,21.2,18.7,29.91,NNE,22,4.5,17.4,90,0.00,,,0.00,WUHU216HW,2013-12-23 03:05:00,
2013-12-22 21:06:00,21.2,18.7,29.91,NNE,22,4.5,17.4,90,0.00,,,0.00,WUHU216HW,2013-12-23 03:06:00,
2013-12-22 21:08:00,21.2,18.7,29.91,NNE,22,4.5,17.4,90,0.00,,,0.00,WUHU216HW,2013-12-23 03:08:00,
2013-12-22 21:09:00,21.2,18.7,29.91,NNE,22,4.5,17.4,90,0.00,,,0.00,WUHU216HW,2013-12-23 03:09:00,
2013-12-22 21:10:00,21.2,18.7,29.91,NNE,22,4.5,17.4,90,0.00,,,0.00,WUHU216HW,2013-12-23 03:10:00,
2013-12-22 21:11:00,21.2,18.7,29.91,NNE,22,4.5,17.4,90,0.00,,,0.00,WUHU216HW,2013-12-23 03:11:00,
2013-12-22 21:13:00,21.2,18.7,29.91,NNE,22,4.5,17.4,90,0.00,,,0.00,WUHU216HW,2013-12-23 03:13:00,
2013-12-22 21:14:00,21.2,18.5,29.91,NNE,22,4.5,17.4,89,0.00,,,0.00,WUHU216HW,2013-12-23 03:14:00,
2013-12-22 21:15:00,21.2,18.7,29.91,NNE,22,4.5,17.4,90,0.00,,,0.00,WUHU216HW,2013-12-23 03:15:00,
2013-12-22 21:17:00,21.2,18.7,29.91,NNE,22,4.5,17.4,90,0.00,,,0.00,WUHU216HW,2013-12-23 03:17:00,
2013-12-22 21:19:00,21.2,18.5,29.92,NNE,22,4.5,17.4,89,0.00,,,0.00,WUHU216HW,2013-12-23 03:19:00,
2013-12-22 21:20:00,21.2,18.5,29.92,NNE,22,4.5,17.4,89,0.00,,,0.00,WUHU216HW,2013-12-23 03:20:00,
2013-12-22 21:21:00,21.2,18.5,29.92,NNE,22,4.5,17.4,89,0.00,,,0.00,WUHU216HW,2013-12-23 03:21:00,
2013-12-22 21:22:00,21.2,18.5,29.92,NNE,22,4.5,17.4,89,0.00,,,0.00,WUHU216HW,2013-12-23 03:22:00,
2013-12-22 21:24:00,21.2,18.7,29.92,NNE,22,4.5,17.4,90,0.00,,,0.00,WUHU216HW,2013-12-23 03:24:00,
2013-12-22 21:25:00,21.2,18.7,29.92,NNE,22,4.5,17.4,90,0.00,,,0.00,WUHU216HW,2013-12-23 03:25:00,
2013-12-22 21:26:00,21.2,18.5,29.92,NNE,22,4.5,17.4,89,0.00,,,0.00,WUHU216HW,2013-12-23 03:26:00,
2013-12-22 21:27:00,21.2,18.7,29.92,NNE,22,4.5,17.4,90,0.00,,,0.00,WUHU216HW,2013-12-23 03:27:00,
2013-12-22 21:28:00,21.2,18.7,29.92,NNE,22,4.5,17.4,90,0.00,,,0.00,WUHU216HW,2013-12-23 03:28:00,
2013-12-22 21:30:00,21.2,18.5,29.92,NNE,22,4.5,17.0,89,0.00,,,0.00,WUHU216HW,2013-12-23 03:30:00,
2013-12-22 21:31:00,21.2,18.5,29.92,NNE,22,4.5,17.0,89,0.00,,,0.00,WUHU216HW,2013-12-23 03:31:00,
2013-12-22 21:33:00,21.2,18.5,29.92,NNE,22,4.5,17.0,89,0.00,,,0.00,WUHU216HW,2013-12-23 03:33:00,
2013-12-22 21:35:00,21.2,18.5,29.92,NNE,22,4.5,15.7,89,0.00,,,0.00,WUHU216HW,2013-12-23 03:35:00,
2013-12-22 21:36:00,21.2,18.5,29.92,NNE,22,4.5,15.7,89,0.00,,,0.00,WUHU216HW,2013-12-23 03:36:00,
2013-12-22 21:38:00,21.2,18.5,29.92,NNE,22,4.5,15.7,89,0.00,,,0.00,WUHU216HW,2013-12-23 03:38:00,
2013-12-22 21:39:00,21.2,18.5,29.92,NNE,22,4.5,15.7,89,0.00,,,0.00,WUHU216HW,2013-12-23 03:39:00,
2013-12-22 21:40:00,21.2,18.5,29.92,NNE,22,4.5,15.7,89,0.00,,,0.00,WUHU216HW,2013-12-23 03:40:00,
2013-12-22 21:41:00,21.2,18.5,29.92,NNE,22,4.5,15.7,89,0.00,,,0.00,WUHU216HW,2013-12-23 03:41:00,
2013-12-22 21:43:00,21.2,18.5,29.93,NNE,22,4.5,15.0,89,0.00,,,0.00,WUHU216HW,2013-12-23 03:43:00,
2013-12-22 21:44:00,21.2,18.5,29.93,NNE,22,4.5,15.0,89,0.00,,,0.00,WUHU216HW,2013-12-23 03:44:00,
2013-12-22 21:45:00,21.2,18.5,29.93,NNE,22,4.5,15.0,89,0.00,,,0.00,WUHU216HW,2013-12-23 03:45:00,
2013-12-22 21:46:00,21.2,18.5,29.93,NNE,22,4.5,15.0,89,0.00,,,0.00,WUHU216HW,2013-12-23 03:46:00,
2013-12-22 21:47:00,21.2,18.5,29.93,NNE,22,4.5,15.0,89,0.00,,,0.00,WUHU216HW,2013-12-23 03:47:00,
2013-12-22 21:49:00,21.2,18.5,29.93,NNE,22,4.5,15.0,89,0.00,,,0.00,WUHU216HW,2013-12-23 03:49:00,
2013-12-22 21:50:00,21.2,18.7,29.93,NNE,22,4.5,15.0,90,0.00,,,0.00,WUHU216HW,2013-12-23 03:50:00,
2013-12-22 21:51:00,21.2,18.7,29.93,NNE,22,4.5,15.0,90,0.00,,,0.00,WUHU216HW,2013-12-23 03:51:00,
2013-12-22 21:52:00,21.2,18.7,29.93,NNE,22,4.5,15.0,90,0.00,,,0.00,WUHU216HW,2013-12-23 03:52:00,
2013-12-22 21:57:00,21.2,18.7,29.93,NNE,22,4.5,17.4,90,0.00,,,0.00,WUHU216HW,2013-12-23 03:57:00,
2013-12-22 21:58:00,21.2,18.7,29.93,NNE,22,4.5,17.4,90,0.00,,,0.00,WUHU216HW,2013-12-23 03:58:00,
2013-12-22 21:59:00,21.2,18.7,29.93,NNE,22,4.5,17.4,90,0.00,,,0.00,WUHU216HW,2013-12-23 03:59:00,
2013-12-22 22:01:00,21.2,18.7,29.93,NNE,22,4.5,17.4,90,0.00,,,0.00,WUHU216HW,2013-12-23 04:01:00,
2013-12-22 22:02:00,21.2,18.7,29.93,NNE,22,4.5,17.4,90,0.00,,,0.00,WUHU216HW,2013-12-23 04:02:00,
2013-12-22 22:03:00,21.1,18.5,29.93,NNE,22,4.5,17.4,90,0.00,,,0.00,WUHU216HW,2013-12-23 04:03:00,
2013-12-22 22:04:00,21.2,18.7,29.93,NNE,22,4.5,17.4,90,0.00,,,0.00,WUHU216HW,2013-12-23 04:04:00,
2013-12-22 22:06:00,21.2,18.7,29.94,NNE,22,4.5,17.4,90,0.00,,,0.00,WUHU216HW,2013-12-23 04:06:00,
2013-12-22 22:07:00,21.2,18.7,29.93,NNE,22,4.5,17.4,90,0.00,,,0.00,WUHU216HW,2013-12-23 04:07:00,
2013-12-22 22:09:00,21.1,18.5,29.94,NNE,22,4.5,17.4,90,0.00,,,0.00,WUHU216HW,2013-12-23 04:09:00,
2013-12-22 22:11:00,21.1,18.5,29.94,NNE,22,4.5,17.4,90,0.00,,,0.00,WUHU216HW,2013-12-23 04:11:00,
2013-12-22 22:12:00,21.1,18.5,29.93,NNE,22,4.5,17.4,90,0.00,,,0.00,WUHU216HW,2013-12-23 04:12:00,
2013-12-22 22:14:00,21.1,18.5,29.94,NNE,22,4.5,17.4,90,0.00,,,0.00,WUHU216HW,2013-12-23 04:14:00,
2013-12-22 22:15:00,21.1,18.5,29.94,NNE,22,4.5,17.4,90,0.00,,,0.00,WUHU216HW,2013-12-23 04:15:00,
2013-12-22 22:16:00,21.1,18.5,29.94,NNE,22,4.4,17.4,90,0.00,,,0.00,WUHU216HW,2013-12-23 04:16:00,
2013-12-22 22:17:00,21.1,18.5,29.94,NNE,22,4.4,17.4,90,0.00,,,0.00,WUHU216HW,2013-12-23 04:17:00,
2013-12-22 22:19:00,21.1,18.5,29.94,NNE,22,4.4,17.4,90,0.00,,,0.00,WUHU216HW,2013-12-23 04:19:00,
2013-12-22 22:20:00,20.9,18.4,29.94,NNE,22,4.4,17.4,90,0.00,,,0.00,WUHU216HW,2013-12-23 04:20:00,
2013-12-22 22:21:00,20.9,18.4,29.94,NNE,22,4.4,17.4,90,0.00,,,0.00,WUHU216HW,2013-12-23 04:21:00,
2013-12-22 22:22:00,20.9,18.4,29.94,NNE,22,4.4,17.4,90,0.00,,,0.00,WUHU216HW,2013-12-23 04:22:00,
2013-12-22 22:25:00,20.9,18.4,29.94,NNE,22,4.5,17.4,90,0.00,,,0.00,WUHU216HW,2013-12-23 04:25:00,
2013-12-22 22:27:00,20.9,18.4,29.94,NNE,22,4.5,17.4,90,0.00,,,0.00,WUHU216HW,2013-12-23 04:27:00,
2013-12-22 22:28:00,20.9,18.4,29.94,NNE,22,4.5,17.4,90,0.00,,,0.00,WUHU216HW,2013-12-23 04:28:00,
2013-12-22 22:30:00,20.9,18.4,29.94,NNE,22,4.4,17.0,90,0.00,,,0.00,WUHU216HW,2013-12-23 04:30:00,
2013-12-22 22:32:00,20.9,18.4,29.94,NNE,22,4.4,17.0,90,0.00,,,0.00,WUHU216HW,2013-12-23 04:32:00,
2013-12-22 22:33:00,20.9,18.4,29.94,NNE,22,4.4,17.0,90,0.00,,,0.00,WUHU216HW,2013-12-23 04:33:00,
2013-12-22 22:35:00,20.9,18.4,29.94,NNE,22,4.4,15.7,90,0.00,,,0.00,WUHU216HW,2013-12-23 04:35:00,
2013-12-22 22:37:00,20.9,18.4,29.94,NNE,22,4.4,15.7,90,0.00,,,0.00,WUHU216HW,2013-12-23 04:37:00,
2013-12-22 22:38:00,20.9,18.4,29.94,NNE,22,4.4,15.7,90,0.00,,,0.00,WUHU216HW,2013-12-23 04:38:00,
2013-12-22 22:40:00,20.9,18.4,29.94,NNE,22,4.5,15.7,90,0.00,,,0.00,WUHU216HW,2013-12-23 04:40:00,
2013-12-22 22:41:00,20.7,18.2,29.94,NNE,22,4.5,15.7,90,0.00,,,0.00,WUHU216HW,2013-12-23 04:41:00,
2013-12-22 22:42:00,20.7,18.2,29.94,NNE,22,4.5,15.0,90,0.00,,,0.00,WUHU216HW,2013-12-23 04:42:00,
2013-12-22 22:43:00,20.7,18.2,29.94,NNE,22,4.5,15.0,90,0.00,,,0.00,WUHU216HW,2013-12-23 04:43:00,
2013-12-22 22:45:00,20.7,18.2,29.94,NNE,22,4.5,15.0,90,0.00,,,0.00,WUHU216HW,2013-12-23 04:45:00,
2013-12-22 22:46:00,20.7,18.2,29.94,NNE,22,4.5,15.0,90,0.00,,,0.00,WUHU216HW,2013-12-23 04:46:00,
2013-12-22 22:47:00,20.7,18.2,29.94,NNE,22,4.5,15.0,90,0.00,,,0.00,WUHU216HW,2013-12-23 04:47:00,
2013-12-22 22:48:00,20.7,18.2,29.94,NNE,22,4.4,15.0,90,0.00,,,0.00,WUHU216HW,2013-12-23 04:48:00,
2013-12-22 22:50:00,20.5,18.0,29.95,NNE,22,4.5,15.0,90,0.00,,,0.00,WUHU216HW,2013-12-23 04:50:00,
2013-12-22 22:51:00,20.5,18.0,29.95,NNE,22,4.5,15.0,90,0.00,,,0.00,WUHU216HW,2013-12-23 04:51:00,
2013-12-22 22:53:00,20.5,18.0,29.95,NNE,22,4.5,15.0,90,0.00,,,0.00,WUHU216HW,2013-12-23 04:53:00,
2013-12-22 22:58:00,20.3,17.8,29.95,NNE,22,4.4,17.4,90,0.00,,,0.00,WUHU216HW,2013-12-23 04:58:00,
2013-12-22 22:59:00,20.3,17.8,29.95,NNE,22,4.4,17.4,90,0.00,,,0.00,WUHU216HW,2013-12-23 04:59:00,
2013-12-22 23:00:00,20.2,17.6,29.95,NNE,22,4.4,17.4,90,0.00,,,0.00,WUHU216HW,2013-12-23 05:00:00,
2013-12-22 23:04:00,20.2,17.6,29.95,NNE,22,4.4,17.4,90,0.00,,,0.00,WUHU216HW,2013-12-23 05:04:00,
2013-12-22 23:06:00,20.0,17.5,29.95,NNE,22,4.4,17.4,90,0.00,,,0.00,WUHU216HW,2013-12-23 05:06:00,
2013-12-22 23:08:00,20.0,17.5,29.95,NNE,22,4.4,17.4,90,0.00,,,0.00,WUHU216HW,2013-12-23 05:08:00,
2013-12-22 23:09:00,20.0,17.5,29.96,NNE,22,4.4,17.4,90,0.00,,,0.00,WUHU216HW,2013-12-23 05:09:00,
2013-12-22 23:11:00,20.0,17.5,29.95,NNE,22,4.4,17.4,90,0.00,,,0.00,WUHU216HW,2013-12-23 05:11:00,
2013-12-22 23:13:00,20.0,17.5,29.96,NNE,22,4.4,17.4,90,0.00,,,0.00,WUHU216HW,2013-12-23 05:13:00,
2013-12-22 23:14:00,20.0,17.5,29.96,NNE,22,4.4,17.4,90,0.00,,,0.00,WUHU216HW,2013-12-23 05:14:00,
2013-12-22 23:15:00,20.0,17.5,29.96,NNE,22,4.4,17.4,90,0.00,,,0.00,WUHU216HW,2013-12-23 05:15:00,
2013-12-22 23:16:00,20.0,17.5,29.96,NNE,22,4.4,17.4,90,0.00,,,0.00,WUHU216HW,2013-12-23 05:16:00,
2013-12-22 23:17:00,20.0,17.5,29.96,NNE,22,4.4,17.4,90,0.00,,,0.00,WUHU216HW,2013-12-23 05:17:00,
2013-12-22 23:18:00,20.0,17.5,29.96,NNE,22,4.4,17.4,90,0.00,,,0.00,WUHU216HW,2013-12-23 05:18:00,
2013-12-22 23:19:00,20.0,17.5,29.96,NNE,22,4.4,17.4,90,0.00,,,0.00,WUHU216HW,2013-12-23 05:19:00,
2013-12-22 23:20:00,20.0,17.5,29.96,NNE,22,4.4,17.4,90,0.00,,,0.00,WUHU216HW,2013-12-23 05:20:00,
2013-12-22 23:21:00,19.8,17.3,29.96,NNE,22,4.4,17.4,90,0.00,,,0.00,WUHU216HW,2013-12-23 05:21:00,
2013-12-22 23:22:00,20.0,17.5,29.96,NNE,22,4.4,17.4,90,0.00,,,0.00,WUHU216HW,2013-12-23 05:22:00,
2013-12-22 23:23:00,19.8,17.3,29.96,NNE,22,4.4,17.4,90,0.00,,,0.00,WUHU216HW,2013-12-23 05:23:00,
2013-12-22 23:24:00,19.8,17.3,29.96,NNE,22,4.4,17.4,90,0.00,,,0.00,WUHU216HW,2013-12-23 05:24:00,
2013-12-22 23:25:00,19.8,17.3,29.96,NNE,22,4.4,17.4,90,0.00,,,0.00,WUHU216HW,2013-12-23 05:25:00,
2013-12-22 23:26:00,19.8,17.3,29.96,NNE,22,4.4,17.4,90,0.00,,,0.00,WUHU216HW,2013-12-23 05:26:00,
2013-12-22 23:27:00,19.8,17.3,29.96,NNE,22,4.4,17.4,90,0.00,,,0.00,WUHU216HW,2013-12-23 05:27:00,
2013-12-22 23:29:00,19.6,17.1,29.95,NNE,22,4.4,17.4,90,0.00,,,0.00,WUHU216HW,2013-12-23 05:29:00,
2013-12-22 23:30:00,19.6,17.1,29.95,NNE,22,4.4,17.0,90,0.00,,,0.00,WUHU216HW,2013-12-23 05:30:00,
2013-12-22 23:31:00,19.4,16.9,29.96,NNE,22,4.4,17.0,90,0.00,,,0.00,WUHU216HW,2013-12-23 05:31:00,
2013-12-22 23:32:00,19.4,16.9,29.96,NNE,22,4.4,17.0,90,0.00,,,0.00,WUHU216HW,2013-12-23 05:32:00,
2013-12-22 23:34:00,19.3,16.7,29.96,NNE,22,4.4,15.7,90,0.00,,,0.00,WUHU216HW,2013-12-23 05:34:00,
2013-12-22 23:35:00,19.3,16.7,29.96,NNE,22,4.4,15.7,90,0.00,,,0.00,WUHU216HW,2013-12-23 05:35:00,
2013-12-22 23:36:00,19.1,16.6,29.96,NNE,22,4.4,15.7,90,0.00,,,0.00,WUHU216HW,2013-12-23 05:36:00,
2013-12-22 23:37:00,19.1,16.6,29.96,NNE,22,4.4,15.7,90,0.00,,,0.00,WUHU216HW,2013-12-23 05:37:00,
2013-12-22 23:39:00,19.1,16.6,29.96,NNE,22,4.4,15.7,90,0.00,,,0.00,WUHU216HW,2013-12-23 05:39:00,
2013-12-22 23:40:00,19.1,16.6,29.96,NNE,22,4.4,15.7,90,0.00,,,0.00,WUHU216HW,2013-12-23 05:40:00,
2013-12-22 23:41:00,18.9,16.4,29.96,NNE,22,4.4,15.7,90,0.00,,,0.00,WUHU216HW,2013-12-23 05:41:00,
2013-12-22 23:42:00,18.9,16.4,29.96,NNE,22,4.4,15.7,90,0.00,,,0.00,WUHU216HW,2013-12-23 05:42:00,
2013-12-22 23:43:00,18.9,16.4,29.96,NNE,22,4.4,15.0,90,0.00,,,0.00,WUHU216HW,2013-12-23 05:43:00,
2013-12-22 23:44:00,18.7,16.2,29.96,NNE,22,4.4,15.0,90,0.00,,,0.00,WUHU216HW,2013-12-23 05:44:00,
2013-12-22 23:45:00,18.7,16.2,29.97,NNE,22,4.4,15.0,90,0.00,,,0.00,WUHU216HW,2013-12-23 05:45:00,
2013-12-22 23:47:00,18.7,16.2,29.96,NNE,22,4.4,15.0,90,0.00,,,0.00,WUHU216HW,2013-12-23 05:47:00,
2013-12-22 23:48:00,18.5,16.0,29.96,NNE,22,4.4,15.0,90,0.00,,,0.00,WUHU216HW,2013-12-23 05:48:00,
2013-12-22 23:49:00,18.5,16.0,29.96,NNE,22,4.4,15.0,90,0.00,,,0.00,WUHU216HW,2013-12-23 05:49:00,
2013-12-22 23:50:00,18.4,15.8,29.97,NNE,22,4.4,15.0,90,0.00,,,0.00,WUHU216HW,2013-12-23 05:50:00,
2013-12-22 23:52:00,18.4,15.8,29.96,NNE,22,4.4,15.0,90,0.00,,,0.00,WUHU216HW,2013-12-23 05:52:00,
2013-12-22 23:53:00,18.4,15.8,29.96,NNE,22,4.4,15.0,90,0.00,,,0.00,WUHU216HW,2013-12-23 05:53:00,
2013-12-22 23:58:00,18.4,15.8,29.97,NNE,22,4.4,17.4,90,0.00,,,0.00,WUHU216HW,2013-12-23 05:58:00,
2013-12-22 23:59:00,18.2,15.7,29.97,NNE,22,4.4,17.4,90,0.00,,,0.00,WUHU216HW,2013-12-23 05:59:00,